IT9IJI-13 Weather Reports


Display with metric or nautical units.
time (UTC)temp
F
wind
direction
speed
MPH
gust
MPH
rain 1hr
in
rain 24hr
in
rain mn
in
humidity
%
barometer
mb
20260831010104 84 298 2.0 9.0 0.00 0.00 0.00 72 1015.6
20260831010004 84 298 2.0 9.0 0.00 0.00 0.00 72 1015.6
20260831005904 84 299 2.0 9.0 0.00 0.00 0.00 72 1015.7
20260831005804 84 301 3.0 9.0 0.00 0.00 0.00 72 1015.6
20260831005704 84 299 3.0 9.0 0.00 0.00 0.00 72 1015.6
20260831005604 84 299 3.0 9.0 0.00 0.00 0.00 72 1015.6
20260831005504 84 299 3.0 9.0 0.00 0.00 0.00 72 1015.6
20260831005404 84 297 3.0 9.0 0.00 0.00 0.00 72 1015.7
20260831005306 84 298 3.0 8.0 0.00 0.00 0.00 72 1015.8
20260831005204 84 299 3.0 8.0 0.00 0.00 0.00 73 1015.7
20260831005104 84 299 3.0 8.0 0.00 0.00 0.00 73 1015.7
20260831005004 84 298 3.0 8.0 0.00 0.00 0.00 73 1015.7
20260831004904 84 296 2.0 8.0 0.00 0.00 0.00 73 1015.8
20260831004803 84 295 2.0 7.0 0.00 0.00 0.00 73 1015.8
20260831004704 84 298 2.0 6.0 0.00 0.00 0.00 73 1015.7
20260831004603 84 298 2.0 7.0 0.00 0.00 0.00 73 1015.6
20260831004504 84 297 2.0 7.0 0.00 0.00 0.00 73 1015.8
20260831004404 84 298 2.0 7.0 0.00 0.00 0.00 73 1015.8
20260831004303 84 297 2.0 7.0 0.00 0.00 0.00 73 1015.8
20260831004203 84 298 2.0 7.0 0.00 0.00 0.00 73 1015.7
20260831004103 84 297 2.0 7.0 0.00 0.00 0.00 73 1015.7
20260831004003 84 297 3.0 7.0 0.00 0.00 0.00 73 1015.6
20260831003903 84 297 3.0 7.0 0.00 0.00 0.00 73 1015.7
20260831003803 84 297 3.0 7.0 0.00 0.00 0.00 73 1015.7
20260831003703 84 295 3.0 7.0 0.00 0.00 0.00 73 1015.7
20260831003603 84 295 2.0 7.0 0.00 0.00 0.00 73 1015.8
20260831003503 84 295 2.0 6.0 0.00 0.00 0.00 73 1015.9
20260831003403 84 295 2.0 6.0 0.00 0.00 0.00 73 1015.7
20260831003303 84 295 2.0 6.0 0.00 0.00 0.00 73 1015.8
20260831003203 84 295 1.0 6.0 0.00 0.00 0.00 73 1015.7
20260831003103 84 296 1.0 4.0 0.00 0.00 0.00 73 1015.6
20260831003003 84 299 1.0 4.0 0.00 0.00 0.00 73 1015.7
20260831002903 84 301 1.0 4.0 0.00 0.00 0.00 73 1015.8
20260831002803 84 298 1.0 7.0 0.00 0.00 0.00 73 1015.8
20260831002703 84 295 1.0 10.0 0.00 0.00 0.00 73 1015.8
20260831002603 84 295 1.0 10.0 0.00 0.00 0.00 73 1015.8
20260831002503 84 297 2.0 10.0 0.00 0.00 0.00 73 1015.7
20260831002403 84 296 2.0 10.0 0.00 0.00 0.00 73 1015.8
20260831002306 84 295 1.0 10.0 0.00 0.00 0.00 73 1015.6
20260831002203 84 295 2.0 10.0 0.00 0.00 0.00 73 1015.7
20260831002103 84 297 2.0 10.0 0.00 0.00 0.00 73 1015.8
20260831002003 84 297 2.0 10.0 0.00 0.00 0.00 73 1015.8
20260831001903 84 296 2.0 10.0 0.00 0.00 0.00 74 1015.7
20260831001803 84 296 2.0 10.0 0.00 0.00 0.00 73 1015.8
20260831001703 84 299 2.0 7.0 0.00 0.00 0.00 74 1015.8
20260831001603 85 297 2.0 9.0 0.00 0.00 0.00 74 1015.7
20260831001503 84 298 2.0 9.0 0.00 0.00 0.00 74 1015.8
20260831001403 84 301 3.0 9.0 0.00 0.00 0.00 74 1015.7
20260831001303 84 303 3.0 9.0 0.00 0.00 0.00 74 1015.7
20260831001203 85 302 3.0 11.0 0.00 0.00 0.00 74 1015.8
20260831001103 84 302 3.0 11.0 0.00 0.00 0.00 74 1015.7
20260831001003 85 303 3.0 11.0 0.00 0.00 0.00 74 1015.8
20260831000903 85 303 3.0 11.0 0.00 0.00 0.00 74 1016.0
20260831000803 85 305 3.0 11.0 0.00 0.00 0.00 74 1016.0
20260831000703 85 304 3.0 11.0 0.00 0.00 0.00 74 1016.1
20260831000603 85 306 3.0 11.0 0.00 0.00 0.00 74 1015.9
20260831000503 85 302 3.0 11.0 0.00 0.00 0.00 74 1016.0
20260831000403 85 300 3.0 11.0 0.00 0.00 0.00 74 1016.0
20260831000303 85 297 3.0 11.0 0.00 0.00 0.00 74 1016.0
20260831000204 85 298 2.0 10.0 0.00 0.00 0.00 74 1015.9
20260831000103 85 297 3.0 10.0 0.00 0.00 0.00 74 1015.9
20260831000003 85 297 3.0 10.0 0.00 0.00 0.00 74 1015.9
20260830235903 85 297 3.0 10.0 0.00 0.00 0.00 74 1015.9
20260830235803 85 297 3.0 10.0 0.00 0.00 0.00 74 1015.9
20260830235703 85 297 3.0 10.0 0.00 0.00 0.00 74 1015.8
20260830235603 85 297 3.0 10.0 0.00 0.00 0.00 74 1015.8
20260830235503 85 297 3.0 8.0 0.00 0.00 0.00 74 1015.8
20260830235403 85 297 3.0 8.0 0.00 0.00 0.00 74 1015.9
20260830235305 85 297 3.0 8.0 0.00 0.00 0.00 74 1015.8
20260830235203 85 298 4.0 9.0 0.00 0.00 0.00 74 1015.8
20260830235103 85 299 4.0 9.0 0.00 0.00 0.00 74 1015.8
20260830235003 85 299 4.0 9.0 0.00 0.00 0.00 74 1015.8
20260830234903 85 300 4.0 9.0 0.00 0.00 0.00 74 1015.8
20260830234803 85 301 4.0 9.0 0.00 0.00 0.00 74 1015.8
20260830234703 85 301 4.0 9.0 0.00 0.00 0.00 74 1015.7
20260830234603 85 300 4.0 9.0 0.00 0.00 0.00 74 1015.8
20260830234503 85 300 3.0 9.0 0.00 0.00 0.00 74 1015.7
20260830234403 85 301 3.0 9.0 0.00 0.00 0.00 74 1015.8
20260830234303 85 302 4.0 9.0 0.00 0.00 0.00 74 1015.7
20260830234203 85 300 3.0 9.0 0.00 0.00 0.00 74 1015.6
20260830234103 85 300 3.0 9.0 0.00 0.00 0.00 73 1015.7
20260830234003 85 302 3.0 9.0 0.00 0.00 0.00 73 1015.7
20260830233903 85 302 3.0 9.0 0.00 0.00 0.00 73 1015.7
20260830233803 85 300 4.0 9.0 0.00 0.00 0.00 73 1015.7
20260830233703 85 301 4.0 9.0 0.00 0.00 0.00 73 1015.6
20260830233603 85 302 4.0 9.0 0.00 0.00 0.00 73 1015.7
20260830233503 85 304 4.0 9.0 0.00 0.00 0.00 73 1015.7
20260830233403 85 303 4.0 9.0 0.00 0.00 0.00 73 1015.7
20260830233303 85 303 3.0 8.0 0.00 0.00 0.00 73 1015.7
20260830233203 85 304 3.0 8.0 0.00 0.00 0.00 73 1015.6
20260830233103 85 304 3.0 8.0 0.00 0.00 0.00 73 1015.7
20260830233003 85 303 3.0 8.0 0.00 0.00 0.00 73 1015.6
20260830232903 85 302 3.0 8.0 0.00 0.00 0.00 73 1015.7
20260830232803 85 303 3.0 8.0 0.00 0.00 0.00 73 1015.7
20260830232703 85 301 3.0 8.0 0.00 0.00 0.00 73 1015.7
20260830232603 85 300 3.0 10.0 0.00 0.00 0.00 73 1015.6
20260830232503 85 298 3.0 10.0 0.00 0.00 0.00 73 1015.7
20260830232403 85 299 3.0 10.0 0.00 0.00 0.00 73 1015.6
20260830232305 85 299 4.0 11.0 0.00 0.00 0.00 73 1015.7
20260830232203 85 299 4.0 11.0 0.00 0.00 0.00 73 1015.7
20260830232103 85 299 4.0 11.0 0.00 0.00 0.00 73 1015.7
20260830232003 85 299 4.0 11.0 0.00 0.00 0.00 73 1015.7
20260830231903 85 298 4.0 11.0 0.00 0.00 0.00 73 1015.8
20260830231803 85 298 4.0 11.0 0.00 0.00 0.00 73 1015.8
20260830231703 85 298 4.0 11.0 0.00 0.00 0.00 73 1015.8
20260830231603 85 300 4.0 11.0 0.00 0.00 0.00 73 1015.8
20260830231503 85 300 4.0 11.0 0.00 0.00 0.00 73 1015.7
20260830231403 85 299 4.0 11.0 0.00 0.00 0.00 73 1015.8
20260830231303 85 297 3.0 6.0 0.00 0.00 0.00 73 1015.8
20260830231003 85 297 3.0 7.0 0.00 0.00 0.00 73 1015.7
20260830230903 85 295 3.0 7.0 0.00 0.00 0.00 73 1015.7
20260830230803 85 294 3.0 7.0 0.00 0.00 0.00 73 1015.7
20260830230703 85 297 3.0 6.0 0.00 0.00 0.00 73 1015.8
20260830230603 85 298 3.0 8.0 0.00 0.00 0.00 73 1015.8
20260830230503 85 298 3.0 8.0 0.00 0.00 0.00 73 1015.8
20260830230403 85 300 3.0 8.0 0.00 0.00 0.00 73 1015.8
20260830230303 85 300 3.0 8.0 0.00 0.00 0.00 74 1015.8
20260830230204 85 299 3.0 8.0 0.00 0.00 0.00 74 1015.8
20260830230103 85 298 3.0 8.0 0.00 0.00 0.00 74 1015.7
20260830230004 85 298 3.0 8.0 0.00 0.00 0.00 74 1015.6
20260830225903 85 300 3.0 8.0 0.00 0.00 0.00 74 1015.6
20260830225803 85 299 3.0 8.0 0.00 0.00 0.00 74 1015.7
20260830225703 86 300 3.0 8.0 0.00 0.00 0.00 74 1015.7
20260830225603 86 299 3.0 8.0 0.00 0.00 0.00 74 1015.6
20260830225503 85 299 3.0 8.0 0.00 0.00 0.00 74 1015.7
20260830225403 86 297 3.0 8.0 0.00 0.00 0.00 74 1015.7
20260830225305 86 297 3.0 8.0 0.00 0.00 0.00 74 1015.6
20260830225203 86 296 3.0 10.0 0.00 0.00 0.00 74 1015.6
20260830225103 86 297 3.0 10.0 0.00 0.00 0.00 74 1015.6
20260830225003 86 297 3.0 10.0 0.00 0.00 0.00 74 1015.6
20260830224903 85 295 3.0 10.0 0.00 0.00 0.00 74 1015.6
20260830224803 85 297 3.0 10.0 0.00 0.00 0.00 74 1015.6
20260830224703 85 295 4.0 11.0 0.00 0.00 0.00 74 1015.6
20260830224603 85 295 4.0 11.0 0.00 0.00 0.00 74 1015.6
20260830224503 85 296 4.0 11.0 0.00 0.00 0.00 75 1015.6
20260830224403 86 296 5.0 11.0 0.00 0.00 0.00 75 1015.7
20260830224303 85 297 5.0 11.0 0.00 0.00 0.00 75 1015.6
20260830224203 85 298 5.0 11.0 0.00 0.00 0.00 75 1015.6
20260830224103 86 297 5.0 11.0 0.00 0.00 0.00 75 1015.6
20260830224003 86 298 5.0 11.0 0.00 0.00 0.00 75 1015.6
20260830223903 86 298 5.0 11.0 0.00 0.00 0.00 75 1015.6
20260830223803 86 297 5.0 11.0 0.00 0.00 0.00 75 1015.6
20260830223703 86 300 5.0 10.0 0.00 0.00 0.00 75 1015.6
20260830223603 86 301 5.0 10.0 0.00 0.00 0.00 75 1015.6
20260830223503 86 301 5.0 10.0 0.00 0.00 0.00 75 1015.5
20260830223403 86 301 5.0 10.0 0.00 0.00 0.00 75 1015.6
20260830223303 86 301 4.0 10.0 0.00 0.00 0.00 75 1015.6
20260830223203 86 302 4.0 10.0 0.00 0.00 0.00 75 1015.5
20260830223103 86 302 4.0 10.0 0.00 0.00 0.00 75 1015.5
20260830223004 86 303 4.0 10.0 0.00 0.00 0.00 75 1015.5
20260830222903 86 304 4.0 10.0 0.00 0.00 0.00 75 1015.5
20260830222803 86 304 4.0 9.0 0.00 0.00 0.00 75 1015.5
20260830222703 86 303 4.0 10.0 0.00 0.00 0.00 75 1015.5
20260830222603 86 300 4.0 10.0 0.00 0.00 0.00 75 1015.5
20260830222503 86 301 4.0 10.0 0.00 0.00 0.00 75 1015.4
20260830222403 86 300 4.0 10.0 0.00 0.00 0.00 75 1015.5
20260830222306 86 299 4.0 10.0 0.00 0.00 0.00 75 1015.5
20260830222203 86 297 4.0 10.0 0.00 0.00 0.00 75 1015.5
20260830222103 86 299 3.0 10.0 0.00 0.00 0.00 75 1015.4
20260830222003 86 297 4.0 10.0 0.00 0.00 0.00 75 1015.4
20260830221903 86 297 4.0 10.0 0.00 0.00 0.00 75 1015.5
20260830221803 86 297 4.0 10.0 0.00 0.00 0.00 75 1015.5
20260830221703 86 297 3.0 10.0 0.00 0.00 0.00 75 1015.5
20260830221603 86 297 3.0 10.0 0.00 0.00 0.00 75 1015.4
20260830221503 86 297 3.0 10.0 0.00 0.00 0.00 75 1015.4
20260830221403 86 299 3.0 10.0 0.00 0.00 0.00 75 1015.5
20260830221303 86 303 3.0 7.0 0.00 0.00 0.00 75 1015.6
20260830221203 86 303 3.0 7.0 0.00 0.00 0.00 75 1015.5
20260830221103 86 301 3.0 7.0 0.00 0.00 0.00 75 1015.5
20260830221003 86 303 2.0 7.0 0.00 0.00 0.00 74 1015.5
20260830220903 86 303 2.0 7.0 0.00 0.00 0.00 74 1015.6
20260830220803 86 302 2.0 7.0 0.00 0.00 0.00 74 1015.5
20260830220703 86 300 3.0 8.0 0.00 0.00 0.00 74 1015.5
20260830220603 86 302 3.0 9.0 0.00 0.00 0.00 74 1015.6
20260830220503 86 303 4.0 9.0 0.00 0.00 0.00 75 1015.6
20260830220403 86 303 4.0 9.0 0.00 0.00 0.00 75 1015.5
20260830220303 86 302 4.0 9.0 0.00 0.00 0.00 75 1015.5
20260830220203 86 301 4.0 9.0 0.00 0.00 0.00 75 1015.5
20260830220119 86 302 5.0 10.0 0.00 0.00 0.00 75 1015.5
20260830215903 86 303 4.0 10.0 0.00 0.00 0.00 74 1015.5
20260830215803 86 303 4.0 10.0 0.00 0.00 0.00 74 1015.5
20260830215703 86 304 4.0 10.0 0.00 0.00 0.00 74 1015.5
20260830215603 86 302 3.0 10.0 0.00 0.00 0.00 74 1015.6
20260830215503 86 301 3.0 10.0 0.00 0.00 0.00 74 1015.7
20260830215403 86 300 3.0 10.0 0.00 0.00 0.00 74 1015.5
20260830215305 86 298 3.0 10.0 0.00 0.00 0.00 74 1015.6
20260830215204 86 300 3.0 10.0 0.00 0.00 0.00 74 1015.5
20260830215104 86 300 3.0 10.0 0.00 0.00 0.00 74 1015.5
20260830215004 86 298 3.0 8.0 0.00 0.00 0.00 74 1015.6
20260830214904 86 297 3.0 8.0 0.00 0.00 0.00 74 1015.6
20260830214804 86 298 4.0 8.0 0.00 0.00 0.00 74 1015.5
20260830214704 86 297 4.0 8.0 0.00 0.00 0.00 74 1015.5
20260830214604 86 298 4.0 8.0 0.00 0.00 0.00 74 1015.5
20260830214504 86 298 4.0 8.0 0.00 0.00 0.00 74 1015.6
20260830214404 86 299 4.0 8.0 0.00 0.00 0.00 74 1015.5
20260830214304 86 298 4.0 9.0 0.00 0.00 0.00 74 1015.5
20260830214204 86 299 4.0 9.0 0.00 0.00 0.00 74 1015.5
20260830214104 86 299 4.0 9.0 0.00 0.00 0.00 74 1015.4
20260830214004 86 300 4.0 9.0 0.00 0.00 0.00 74 1015.4
20260830213904 86 300 4.0 9.0 0.00 0.00 0.00 74 1015.4
20260830213804 86 300 4.0 9.0 0.00 0.00 0.00 73 1015.4
20260830213704 86 299 4.0 9.0 0.00 0.00 0.00 73 1015.5
20260830213604 86 300 4.0 9.0 0.00 0.00 0.00 73 1015.5
20260830213504 86 300 4.0 9.0 0.00 0.00 0.00 73 1015.5
20260830213404 86 300 4.0 9.0 0.00 0.00 0.00 73 1015.6
20260830213304 86 301 4.0 9.0 0.00 0.00 0.00 73 1015.6
20260830213204 86 300 3.0 9.0 0.00 0.00 0.00 73 1015.5
20260830213104 86 299 4.0 9.0 0.00 0.00 0.00 73 1015.6
20260830213004 86 298 4.0 9.0 0.00 0.00 0.00 73 1015.5
20260830212904 86 298 3.0 9.0 0.00 0.00 0.00 72 1015.5
20260830212804 86 298 4.0 9.0 0.00 0.00 0.00 73 1015.5
20260830212704 86 299 3.0 9.0 0.00 0.00 0.00 73 1015.5
20260830212604 86 297 3.0 8.0 0.00 0.00 0.00 73 1015.5
20260830212504 86 297 3.0 8.0 0.00 0.00 0.00 72 1015.4
20260830212404 86 296 3.0 8.0 0.00 0.00 0.00 72 1015.5
20260830212306 86 296 3.0 9.0 0.00 0.00 0.00 72 1015.5
20260830212204 86 297 3.0 9.0 0.00 0.00 0.00 72 1015.5
20260830212104 86 296 3.0 9.0 0.00 0.00 0.00 72 1015.5
20260830212004 86 297 2.0 9.0 0.00 0.00 0.00 73 1015.5
20260830211904 86 297 2.0 9.0 0.00 0.00 0.00 73 1015.5
20260830211804 86 297 2.0 9.0 0.00 0.00 0.00 73 1015.4
20260830211704 86 297 2.0 9.0 0.00 0.00 0.00 73 1015.5
20260830211604 86 297 3.0 9.0 0.00 0.00 0.00 73 1015.5
20260830211504 86 295 3.0 9.0 0.00 0.00 0.00 73 1015.4
20260830211404 86 298 3.0 9.0 0.00 0.00 0.00 73 1015.4
20260830211304 86 299 3.0 10.0 0.00 0.00 0.00 73 1015.4
20260830211204 86 296 3.0 11.0 0.00 0.00 0.00 73 1015.3
20260830211104 86 297 4.0 11.0 0.00 0.00 0.00 73 1015.4
20260830211004 86 298 4.0 11.0 0.00 0.00 0.00 73 1015.4
20260830210904 86 297 4.0 11.0 0.00 0.00 0.00 73 1015.5
20260830210803 32 298 4.0 11.0 0.00 0.00 0.00 73 1015.5
20260830210704 86 298 4.0 11.0 0.00 0.00 0.00 73 1015.4
20260830210603 86 298 5.0 13.0 0.00 0.00 0.00 73 1015.3
20260830210503 86 299 5.0 13.0 0.00 0.00 0.00 73 1015.3
20260830210403 86 297 5.0 13.0 0.00 0.00 0.00 73 1015.6
20260830210303 86 297 5.0 13.0 0.00 0.00 0.00 73 1015.6
20260830210203 86 298 5.0 13.0 0.00 0.00 0.00 73 1015.7
20260830210103 86 297 5.0 13.0 0.00 0.00 0.00 73 1015.5
20260830210004 87 298 5.0 13.0 0.00 0.00 0.00 72 1015.5
20260830205903 86 298 4.0 13.0 0.00 0.00 0.00 72 1015.6
20260830205803 87 298 5.0 13.0 0.00 0.00 0.00 72 1015.5
20260830205704 87 298 4.0 13.0 0.00 0.00 0.00 72 1015.5
20260830205603 87 299 4.0 11.0 0.00 0.00 0.00 72 1015.6
20260830205503 87 298 4.0 11.0 0.00 0.00 0.00 72 1015.6
20260830205403 87 298 4.0 10.0 0.00 0.00 0.00 72 1015.5
20260830205305 87 298 4.0 10.0 0.00 0.00 0.00 72 1015.5
20260830205203 87 298 3.0 7.0 0.00 0.00 0.00 72 1015.5
20260830205103 87 298 3.0 7.0 0.00 0.00 0.00 72 1015.5
20260830205003 87 297 3.0 7.0 0.00 0.00 0.00 72 1015.5
20260830204903 87 296 3.0 7.0 0.00 0.00 0.00 72 1015.4
20260830204803 87 295 3.0 6.0 0.00 0.00 0.00 72 1015.5
20260830204703 87 295 3.0 6.0 0.00 0.00 0.00 72 1015.5
20260830204603 87 295 3.0 6.0 0.00 0.00 0.00 72 1015.5
20260830204503 87 294 2.0 6.0 0.00 0.00 0.00 72 1015.4
20260830204403 87 294 2.0 6.0 0.00 0.00 0.00 72 1015.4
20260830204303 87 294 2.0 6.0 0.00 0.00 0.00 72 1015.5
20260830204203 87 294 2.0 6.0 0.00 0.00 0.00 72 1015.5
20260830204103 87 292 2.0 6.0 0.00 0.00 0.00 72 1015.6
20260830204003 87 293 2.0 6.0 0.00 0.00 0.00 72 1015.5
20260830203903 87 293 2.0 6.0 0.00 0.00 0.00 72 1015.5
20260830203803 87 294 2.0 6.0 0.00 0.00 0.00 73 1015.5
20260830203703 87 292 1.0 6.0 0.00 0.00 0.00 73 1015.4
20260830203603 87 292 1.0 5.0 0.00 0.00 0.00 72 1015.4
20260830203503 87 292 1.0 5.0 0.00 0.00 0.00 72 1015.4
20260830203403 87 292 1.0 5.0 0.00 0.00 0.00 72 1015.4
20260830203303 87 291 1.0 6.0 0.00 0.00 0.00 72 1015.3
20260830203203 87 289 1.0 6.0 0.00 0.00 0.00 72 1015.4
20260830203103 87 291 1.0 6.0 0.00 0.00 0.00 72 1015.4
20260830203003 87 290 1.0 6.0 0.00 0.00 0.00 72 1015.4
20260830202903 87 290 1.0 6.0 0.00 0.00 0.00 72 1015.4
20260830202803 87 286 1.0 11.0 0.00 0.00 0.00 72 1015.3
20260830202703 87 288 2.0 11.0 0.00 0.00 0.00 72 1015.5
20260830202603 87 289 2.0 11.0 0.00 0.00 0.00 72 1015.3
20260830202503 87 288 2.0 11.0 0.00 0.00 0.00 71 1015.3
20260830202403 87 289 2.0 11.0 0.00 0.00 0.00 71 1015.5
20260830202305 87 291 2.0 11.0 0.00 0.00 0.00 71 1015.5
20260830202203 87 294 2.0 11.0 0.00 0.00 0.00 71 1015.4
20260830202103 87 294 3.0 11.0 0.00 0.00 0.00 71 1015.3
20260830202003 87 295 3.0 11.0 0.00 0.00 0.00 71 1015.3
20260830201903 87 295 3.0 11.0 0.00 0.00 0.00 71 1015.5
20260830201803 87 298 2.0 8.0 0.00 0.00 0.00 71 1015.5
20260830201703 87 298 2.0 8.0 0.00 0.00 0.00 71 1015.5
20260830201603 87 298 3.0 8.0 0.00 0.00 0.00 71 1015.4
20260830201503 87 298 3.0 8.0 0.00 0.00 0.00 71 1015.5
20260830201403 87 298 2.0 7.0 0.00 0.00 0.00 71 1015.5
20260830201303 87 298 2.0 7.0 0.00 0.00 0.00 71 1015.5
20260830201203 88 295 2.0 7.0 0.00 0.00 0.00 71 1015.5
20260830201103 87 297 2.0 7.0 0.00 0.00 0.00 72 1015.5
20260830201003 88 298 2.0 7.0 0.00 0.00 0.00 72 1015.5
20260830200903 88 299 2.0 7.0 0.00 0.00 0.00 72 1015.4
20260830200803 88 300 3.0 7.0 0.00 0.00 0.00 72 1015.4
20260830200703 88 300 2.0 7.0 0.00 0.00 0.00 72 1015.4
20260830200603 88 299 2.0 7.0 0.00 0.00 0.00 72 1015.3
20260830200503 88 299 3.0 7.0 0.00 0.00 0.00 72 1015.4
20260830200403 88 299 3.0 7.0 0.00 0.00 0.00 72 1015.4
20260830200303 88 300 3.0 7.0 0.00 0.00 0.00 72 1015.4
20260830200203 88 300 3.0 7.0 0.00 0.00 0.00 72 1015.3
20260830200103 88 299 3.0 7.0 0.00 0.00 0.00 72 1015.3
20260830200003 88 297 3.0 7.0 0.00 0.00 0.00 72 1015.3
20260830195903 88 297 3.0 7.0 0.00 0.00 0.00 72 1015.3
20260830195803 88 297 3.0 7.0 0.00 0.00 0.00 72 1015.3
20260830195703 88 297 3.0 7.0 0.00 0.00 0.00 72 1015.3
20260830195603 88 297 2.0 7.0 0.00 0.00 0.00 72 1015.2
20260830195503 88 297 2.0 7.0 0.00 0.00 0.00 72 1015.2
20260830195403 88 298 2.0 7.0 0.00 0.00 0.00 72 1015.2
20260830195305 88 297 2.0 7.0 0.00 0.00 0.00 72 1015.2
20260830195203 88 296 2.0 7.0 0.00 0.00 0.00 72 1015.2
20260830195103 88 296 2.0 9.0 0.00 0.00 0.00 72 1015.2
20260830195003 88 297 2.0 9.0 0.00 0.00 0.00 73 1015.3
20260830194903 88 296 2.0 9.0 0.00 0.00 0.00 72 1015.3
20260830194803 88 296 2.0 9.0 0.00 0.00 0.00 72 1015.3
20260830194703 88 295 2.0 9.0 0.00 0.00 0.00 72 1015.3
20260830194603 88 294 2.0 9.0 0.00 0.00 0.00 72 1015.3
20260830194503 88 294 2.0 9.0 0.00 0.00 0.00 72 1015.4
20260830194403 88 296 2.0 9.0 0.00 0.00 0.00 72 1015.3
20260830194303 88 295 3.0 9.0 0.00 0.00 0.00 73 1015.3
20260830194203 88 295 3.0 9.0 0.00 0.00 0.00 73 1015.3
20260830194103 88 295 2.0 9.0 0.00 0.00 0.00 73 1015.3
20260830194003 88 296 2.0 9.0 0.00 0.00 0.00 73 1015.3
20260830193903 88 296 2.0 9.0 0.00 0.00 0.00 73 1015.2
20260830193803 88 296 2.0 9.0 0.00 0.00 0.00 73 1015.2
20260830193703 88 295 2.0 9.0 0.00 0.00 0.00 73 1015.2
20260830193603 88 297 2.0 9.0 0.00 0.00 0.00 73 1015.2
20260830193503 88 297 2.0 9.0 0.00 0.00 0.00 74 1015.3
20260830193403 88 294 2.0 7.0 0.00 0.00 0.00 74 1015.3
20260830193303 88 295 1.0 6.0 0.00 0.00 0.00 73 1015.2
20260830193203 88 297 1.0 6.0 0.00 0.00 0.00 73 1015.2
20260830193103 88 298 1.0 6.0 0.00 0.00 0.00 73 1015.2
20260830193003 88 294 0.0 4.0 0.00 0.00 0.00 73 1015.3
20260830192903 88 298 0.0 3.0 0.00 0.00 0.00 73 1015.3
20260830192803 88 292 0.0 3.0 0.00 0.00 0.00 73 1015.3
20260830192704 88 112 0.0 1.0 0.00 0.00 0.00 73 1015.3
20260830192604 88 112 0.0 3.0 0.00 0.00 0.00 73 1015.2
20260830192504 88 112 0.0 3.0 0.00 0.00 0.00 73 1015.2
20260830192404 88 112 0.0 3.0 0.00 0.00 0.00 73 1015.2
20260830192305 88 60 0.0 4.0 0.00 0.00 0.00 73 1015.2
20260830192204 88 60 0.0 4.0 0.00 0.00 0.00 73 1015.2
20260830192104 88 45 0.0 4.0 0.00 0.00 0.00 73 1015.2
20260830192004 88 45 0.0 4.0 0.00 0.00 0.00 73 1015.1
20260830191904 88 45 0.0 4.0 0.00 0.00 0.00 73 1015.1
20260830191804 88 45 0.0 4.0 0.00 0.00 0.00 73 1015.1
20260830191704 88 81 0.0 4.0 0.00 0.00 0.00 73 1015.2
20260830191604 88 45 0.0 4.0 0.00 0.00 0.00 73 1015.2
20260830191504 88 99 0.0 4.0 0.00 0.00 0.00 73 1015.2
20260830191404 88 103 0.0 4.0 0.00 0.00 0.00 73 1015.1
20260830191304 88 115 0.0 2.0 0.00 0.00 0.00 73 1015.1
20260830191204 88 115 0.0 2.0 0.00 0.00 0.00 73 1015.2
20260830191104 88 115 0.0 2.0 0.00 0.00 0.00 73 1015.2
20260830191004 88 115 0.0 2.0 0.00 0.00 0.00 73 1015.1
20260830190904 88 115 0.0 2.0 0.00 0.00 0.00 73 1015.1
20260830190804 88 115 0.0 2.0 0.00 0.00 0.00 73 1015.2
20260830190704 88 115 0.0 2.0 0.00 0.00 0.00 73 1015.1
20260830190604 88 117 0.0 2.0 0.00 0.00 0.00 73 1015.1
20260830190504 88 120 0.0 2.0 0.00 0.00 0.00 73 1015.1
20260830190404 88 112 0.0 1.0 0.00 0.00 0.00 73 1015.1
20260830190304 88 112 0.0 1.0 0.00 0.00 0.00 73 1015.1
20260830190204 88 112 0.0 1.0 0.00 0.00 0.00 73 1015.2
20260830190104 88 0 0.0 0.0 0.00 0.00 0.00 73 1015.1
20260830190005 88 0 0.0 0.0 0.00 0.00 0.00 73 1015.2
20260830185904 88 0 0.0 0.0 0.00 0.00 0.00 73 1015.3
20260830185804 88 0 0.0 0.0 0.00 0.00 0.00 73 1015.3
20260830185704 88 0 0.0 0.0 0.00 0.00 0.00 73 1015.2
20260830185604 88 108 0.0 3.0 0.00 0.00 0.00 74 1015.2
20260830185504 88 109 0.0 3.0 0.00 0.00 0.00 73 1015.2
20260830185404 88 110 0.0 3.0 0.00 0.00 0.00 74 1015.1
20260830185306 88 110 0.0 3.0 0.00 0.00 0.00 74 1015.2
20260830185204 88 110 0.0 3.0 0.00 0.00 0.00 74 1015.2
20260830185104 88 110 0.0 3.0 0.00 0.00 0.00 74 1015.2
20260830185004 88 110 0.0 3.0 0.00 0.00 0.00 73 1015.2
20260830184904 88 110 0.0 3.0 0.00 0.00 0.00 73 1015.2
20260830184804 88 110 0.0 3.0 0.00 0.00 0.00 73 1015.1
20260830184704 88 110 0.0 3.0 0.00 0.00 0.00 73 1015.0
20260830184603 88 112 0.0 2.0 0.00 0.00 0.00 73 1015.1
20260830184504 88 335 0.0 6.0 0.00 0.00 0.00 73 1015.2
20260830184403 88 318 0.0 6.0 0.00 0.00 0.00 73 1015.2
20260830184303 88 293 0.0 6.0 0.00 0.00 0.00 72 1015.1
20260830184203 88 297 0.0 6.0 0.00 0.00 0.00 73 1015.2
20260830184103 88 304 1.0 6.0 0.00 0.00 0.00 72 1015.2
20260830184003 88 318 1.0 6.0 0.00 0.00 0.00 72 1015.2
20260830183903 88 329 1.0 6.0 0.00 0.00 0.00 72 1015.1
20260830183803 88 340 1.0 6.0 0.00 0.00 0.00 72 1015.1
20260830183703 88 340 1.0 6.0 0.00 0.00 0.00 72 1015.1
20260830183603 88 340 1.0 6.0 0.00 0.00 0.00 72 1015.1
20260830183503 88 357 1.0 6.0 0.00 0.00 0.00 72 1015.0
20260830183403 88 58 1.0 6.0 0.00 0.00 0.00 72 1015.0
20260830183303 88 93 0.0 6.0 0.00 0.00 0.00 72 1015.0
20260830183203 88 104 0.0 6.0 0.00 0.00 0.00 72 1015.1
20260830183103 88 113 0.0 6.0 0.00 0.00 0.00 72 1015.0
20260830183003 88 117 0.0 2.0 0.00 0.00 0.00 72 1015.1
20260830182903 88 126 0.0 2.0 0.00 0.00 0.00 72 1015.0
20260830182803 88 202 0.0 1.0 0.00 0.00 0.00 72 1015.1
20260830182703 88 297 0.0 7.0 0.00 0.00 0.00 72 1015.0
20260830182603 88 297 1.0 7.0 0.00 0.00 0.00 72 1014.9
20260830182503 88 297 1.0 7.0 0.00 0.00 0.00 72 1014.8
20260830182403 88 297 1.0 7.0 0.00 0.00 0.00 72 1014.8
20260830182306 88 306 1.0 7.0 0.00 0.00 0.00 72 1014.8
20260830182203 88 304 1.0 7.0 0.00 0.00 0.00 72 1014.8
20260830182103 88 299 2.0 7.0 0.00 0.00 0.00 72 1014.9
20260830182003 88 299 2.0 7.0 0.00 0.00 0.00 72 1015.0
20260830181903 88 299 2.0 7.0 0.00 0.00 0.00 72 1015.0
20260830181803 88 299 2.0 7.0 0.00 0.00 0.00 72 1015.0
20260830181703 88 299 3.0 9.0 0.00 0.00 0.00 72 1015.0
20260830181603 88 302 3.0 9.0 0.00 0.00 0.00 72 1015.0
20260830181503 88 302 3.0 9.0 0.00 0.00 0.00 72 1015.0
20260830181403 88 302 3.0 9.0 0.00 0.00 0.00 72 1014.9
20260830181303 88 300 3.0 9.0 0.00 0.00 0.00 72 1014.9
20260830181203 88 300 2.0 9.0 0.00 0.00 0.00 72 1014.8
20260830181103 88 303 2.0 9.0 0.00 0.00 0.00 71 1014.8
20260830181003 88 304 2.0 9.0 0.00 0.00 0.00 71 1014.8
20260830180903 88 303 2.0 9.0 0.00 0.00 0.00 71 1014.7
20260830180803 88 305 2.0 9.0 0.00 0.00 0.00 71 1014.6
20260830180703 88 309 1.0 7.0 0.00 0.00 0.00 71 1014.6
20260830180603 88 304 1.0 7.0 0.00 0.00 0.00 71 1014.6
20260830180503 88 304 1.0 7.0 0.00 0.00 0.00 71 1014.6
20260830180403 88 301 1.0 7.0 0.00 0.00 0.00 71 1014.6
20260830180303 88 303 1.0 7.0 0.00 0.00 0.00 71 1014.5
20260830180203 88 302 1.0 7.0 0.00 0.00 0.00 71 1014.5
20260830180103 88 301 1.0 7.0 0.00 0.00 0.00 71 1014.6
20260830180003 88 299 1.0 7.0 0.00 0.00 0.00 71 1014.5
20260830175903 88 297 1.0 6.0 0.00 0.00 0.00 70 1014.5
20260830175803 88 298 1.0 6.0 0.00 0.00 0.00 70 1014.5
20260830175703 88 297 1.0 6.0 0.00 0.00 0.00 70 1014.4
20260830175603 88 296 1.0 6.0 0.00 0.00 0.00 70 1014.5
20260830175503 88 295 1.0 6.0 0.00 0.00 0.00 70 1014.5
20260830175403 88 296 1.0 6.0 0.00 0.00 0.00 70 1014.6
20260830175305 88 291 1.0 6.0 0.00 0.00 0.00 70 1014.5
20260830175203 88 289 1.0 6.0 0.00 0.00 0.00 70 1014.5
20260830175103 88 289 1.0 6.0 0.00 0.00 0.00 70 1014.5
20260830175003 88 285 1.0 6.0 0.00 0.00 0.00 71 1014.4
20260830174903 88 290 1.0 6.0 0.00 0.00 0.00 71 1014.4
20260830174803 88 291 1.0 6.0 0.00 0.00 0.00 70 1014.5
20260830174703 88 291 1.0 6.0 0.00 0.00 0.00 70 1014.5
20260830174603 88 293 1.0 6.0 0.00 0.00 0.00 70 1014.4
20260830174503 88 296 1.0 6.0 0.00 0.00 0.00 70 1014.4
20260830174403 88 295 1.0 6.0 0.00 0.00 0.00 70 1014.3
20260830174303 88 295 1.0 6.0 0.00 0.00 0.00 70 1014.2
20260830174203 88 296 1.0 6.0 0.00 0.00 0.00 70 1014.2
20260830174103 89 298 1.0 6.0 0.00 0.00 0.00 70 1014.2
20260830174003 89 299 1.0 6.0 0.00 0.00 0.00 70 1014.3
20260830173903 89 294 1.0 6.0 0.00 0.00 0.00 70 1014.3
20260830173803 89 293 2.0 9.0 0.00 0.00 0.00 70 1014.3
20260830173703 89 294 2.0 9.0 0.00 0.00 0.00 69 1014.3
20260830173603 89 294 2.0 9.0 0.00 0.00 0.00 69 1014.3
20260830173503 89 295 2.0 9.0 0.00 0.00 0.00 69 1014.3
20260830173403 89 298 2.0 9.0 0.00 0.00 0.00 69 1014.2
20260830173303 89 298 2.0 9.0 0.00 0.00 0.00 69 1014.2
20260830173203 89 298 3.0 9.0 0.00 0.00 0.00 69 1014.3
20260830173103 89 297 3.0 9.0 0.00 0.00 0.00 69 1014.3
20260830173003 89 298 3.0 9.0 0.00 0.00 0.00 69 1014.2
20260830172903 89 302 2.0 9.0 0.00 0.00 0.00 68 1014.2
20260830172803 89 305 2.0 8.0 0.00 0.00 0.00 68 1014.1
20260830172703 89 303 2.0 8.0 0.00 0.00 0.00 68 1014.3
20260830172603 89 298 2.0 8.0 0.00 0.00 0.00 68 1014.3
20260830172503 89 299 1.0 6.0 0.00 0.00 0.00 68 1014.2
20260830172403 89 297 2.0 6.0 0.00 0.00 0.00 68 1014.2
20260830172306 89 297 2.0 6.0 0.00 0.00 0.00 67 1014.2
20260830172203 89 295 1.0 6.0 0.00 0.00 0.00 67 1014.1
20260830172103 89 298 2.0 6.0 0.00 0.00 0.00 67 1014.1
20260830172003 89 295 2.0 6.0 0.00 0.00 0.00 67 1014.1
20260830171903 89 295 2.0 6.0 0.00 0.00 0.00 67 1014.1
20260830171803 89 296 2.0 6.0 0.00 0.00 0.00 67 1014.0
20260830171703 89 300 2.0 6.0 0.00 0.00 0.00 67 1014.0
20260830171603 89 305 2.0 7.0 0.00 0.00 0.00 66 1014.1
20260830171503 90 301 2.0 7.0 0.00 0.00 0.00 66 1014.0
20260830171403 90 301 2.0 7.0 0.00 0.00 0.00 66 1014.0
20260830171304 90 302 2.0 7.0 0.00 0.00 0.00 66 1013.9
20260830171204 90 302 2.0 7.0 0.00 0.00 0.00 66 1014.1
20260830171104 90 298 1.0 7.0 0.00 0.00 0.00 66 1014.2
20260830171004 90 301 1.0 7.0 0.00 0.00 0.00 66 1014.2
20260830170904 90 302 1.0 7.0 0.00 0.00 0.00 66 1014.2
20260830170804 90 301 1.0 7.0 0.00 0.00 0.00 66 1014.2
20260830170704 90 295 1.0 7.0 0.00 0.00 0.00 66 1014.2
20260830170604 90 289 1.0 6.0 0.00 0.00 0.00 66 1014.2
20260830170504 90 290 2.0 11.0 0.00 0.00 0.00 66 1014.1
20260830170404 90 287 2.0 11.0 0.00 0.00 0.00 65 1014.1
20260830170304 90 290 2.0 11.0 0.00 0.00 0.00 65 1014.2
20260830170204 90 290 2.0 11.0 0.00 0.00 0.00 65 1014.1
20260830170104 90 291 2.0 11.0 0.00 0.00 0.00 64 1014.1
20260830170004 90 290 2.0 11.0 0.00 0.00 0.00 64 1014.1
20260830165904 90 292 3.0 11.0 0.00 0.00 0.00 64 1014.1
20260830165804 90 289 3.0 11.0 0.00 0.00 0.00 64 1014.2
20260830165704 90 290 3.0 11.0 0.00 0.00 0.00 65 1014.1
20260830165604 90 293 4.0 12.0 0.00 0.00 0.00 65 1014.2
20260830165504 90 297 3.0 12.0 0.00 0.00 0.00 65 1014.1
20260830165404 90 299 3.0 12.0 0.00 0.00 0.00 65 1014.1
20260830165306 90 300 3.0 12.0 0.00 0.00 0.00 65 1014.2
20260830165204 90 299 3.0 12.0 0.00 0.00 0.00 66 1014.1
20260830165104 90 299 3.0 12.0 0.00 0.00 0.00 65 1014.1
20260830165004 90 300 4.0 12.0 0.00 0.00 0.00 65 1014.1
20260830164904 90 299 3.0 12.0 0.00 0.00 0.00 66 1014.1
20260830164804 90 301 3.0 12.0 0.00 0.00 0.00 66 1014.1
20260830164704 90 300 4.0 12.0 0.00 0.00 0.00 66 1014.0
20260830164604 90 299 3.0 11.0 0.00 0.00 0.00 66 1014.0
20260830164504 90 296 3.0 11.0 0.00 0.00 0.00 66 1014.0
20260830164404 90 297 3.0 11.0 0.00 0.00 0.00 66 1014.1
20260830164304 90 292 3.0 11.0 0.00 0.00 0.00 66 1014.0
20260830164204 91 290 3.0 11.0 0.00 0.00 0.00 67 1014.0
20260830164104 91 290 4.0 11.0 0.00 0.00 0.00 67 1014.0
20260830164004 91 289 3.0 11.0 0.00 0.00 0.00 67 1014.1
20260830163904 91 290 4.0 11.0 0.00 0.00 0.00 67 1014.2
20260830163804 91 293 4.0 11.0 0.00 0.00 0.00 66 1014.1
20260830163704 91 293 4.0 10.0 0.00 0.00 0.00 66 1014.1
20260830163604 91 296 3.0 10.0 0.00 0.00 0.00 66 1014.1
20260830163504 91 296 3.0 10.0 0.00 0.00 0.00 66 1014.1
20260830163404 91 296 4.0 10.0 0.00 0.00 0.00 66 1014.1
20260830163304 91 299 3.0 10.0 0.00 0.00 0.00 66 1014.1
20260830163204 91 302 3.0 10.0 0.00 0.00 0.00 65 1014.2
20260830163104 91 303 3.0 10.0 0.00 0.00 0.00 65 1014.2
20260830163004 92 305 3.0 10.0 0.00 0.00 0.00 65 1014.1
20260830162903 92 307 2.0 8.0 0.00 0.00 0.00 65 1014.1
20260830162803 92 304 2.0 11.0 0.00 0.00 0.00 64 1014.0
20260830162703 92 302 2.0 11.0 0.00 0.00 0.00 64 1014.1
20260830162604 92 299 2.0 11.0 0.00 0.00 0.00 64 1014.1
20260830162503 92 302 2.0 11.0 0.00 0.00 0.00 63 1014.0
20260830162404 92 300 2.0 11.0 0.00 0.00 0.00 63 1014.0
20260830162306 92 307 2.0 11.0 0.00 0.00 0.00 63 1014.0
20260830162204 92 316 2.0 11.0 0.00 0.00 0.00 63 1014.0
20260830162103 92 309 2.0 11.0 0.00 0.00 0.00 63 1014.1
20260830162003 92 287 2.0 11.0 0.00 0.00 0.00 63 1014.1
20260830161904 92 291 3.0 11.0 0.00 0.00 0.00 63 1014.0
20260830161803 92 287 3.0 8.0 0.00 0.00 0.00 62 1014.0
20260830161703 92 285 3.0 7.0 0.00 0.00 0.00 62 1013.9
20260830161603 92 286 3.0 7.0 0.00 0.00 0.00 62 1013.9
20260830161503 92 286 3.0 7.0 0.00 0.00 0.00 61 1014.0
20260830161403 92 289 3.0 7.0 0.00 0.00 0.00 61 1014.0
20260830161303 92 290 3.0 8.0 0.00 0.00 0.00 61 1014.0
20260830161203 92 290 3.0 8.0 0.00 0.00 0.00 61 1014.1
20260830161103 93 291 3.0 8.0 0.00 0.00 0.00 61 1014.1
20260830161004 93 293 3.0 8.0 0.00 0.00 0.00 61 1014.1
20260830160903 93 292 3.0 8.0 0.00 0.00 0.00 60 1014.1
20260830160803 93 293 3.0 8.0 0.00 0.00 0.00 60 1014.0
20260830160703 93 294 3.0 8.0 0.00 0.00 0.00 60 1014.0
20260830160603 93 295 3.0 8.0 0.00 0.00 0.00 59 1014.1
20260830160503 93 297 3.0 8.0 0.00 0.00 0.00 59 1014.0
20260830160403 93 296 3.0 8.0 0.00 0.00 0.00 58 1014.1
20260830160303 93 295 2.0 8.0 0.00 0.00 0.00 57 1014.1
20260830160203 93 294 2.0 8.0 0.00 0.00 0.00 57 1014.1
20260830160103 93 294 2.0 8.0 0.00 0.00 0.00 57 1014.0
20260830160003 94 294 2.0 8.0 0.00 0.00 0.00 57 1014.0
20260830155903 94 294 2.0 7.0 0.00 0.00 0.00 57 1014.0
20260830155803 94 294 2.0 7.0 0.00 0.00 0.00 56 1014.1
20260830155703 94 293 2.0 7.0 0.00 0.00 0.00 56 1014.0
20260830155603 94 296 2.0 7.0 0.00 0.00 0.00 55 1013.9
20260830155503 94 297 3.0 9.0 0.00 0.00 0.00 55 1014.0
20260830155403 94 296 3.0 9.0 0.00 0.00 0.00 54 1014.0
20260830155306 94 301 3.0 9.0 0.00 0.00 0.00 53 1013.9
20260830155203 94 299 4.0 9.0 0.00 0.00 0.00 53 1014.0
20260830155103 94 301 4.0 9.0 0.00 0.00 0.00 54 1014.0
20260830155003 94 300 4.0 9.0 0.00 0.00 0.00 53 1014.0
20260830154903 94 301 4.0 9.0 0.00 0.00 0.00 52 1013.9
20260830154803 94 301 4.0 9.0 0.00 0.00 0.00 52 1013.9
20260830154703 94 302 4.0 9.0 0.00 0.00 0.00 52 1014.0
20260830154603 94 301 4.0 9.0 0.00 0.00 0.00 52 1014.0
20260830154503 95 299 3.0 9.0 0.00 0.00 0.00 51 1014.1
20260830154403 95 301 3.0 9.0 0.00 0.00 0.00 51 1014.0
20260830154303 95 299 3.0 9.0 0.00 0.00 0.00 51 1013.9
20260830154203 95 300 3.0 9.0 0.00 0.00 0.00 50 1013.9
20260830154103 95 299 3.0 9.0 0.00 0.00 0.00 50 1014.0
20260830154003 95 299 3.0 9.0 0.00 0.00 0.00 49 1014.0
20260830153903 95 299 2.0 9.0 0.00 0.00 0.00 49 1014.0
20260830153803 95 300 2.0 9.0 0.00 0.00 0.00 49 1013.9
20260830153703 95 303 2.0 7.0 0.00 0.00 0.00 47 1013.9
20260830153603 95 305 2.0 7.0 0.00 0.00 0.00 47 1013.9
20260830153503 95 305 2.0 7.0 0.00 0.00 0.00 47 1013.9
20260830153403 95 306 2.0 7.0 0.00 0.00 0.00 47 1013.9
20260830153303 95 307 2.0 7.0 0.00 0.00 0.00 46 1013.9
20260830153203 95 308 2.0 7.0 0.00 0.00 0.00 45 1013.8
20260830153103 95 307 2.0 7.0 0.00 0.00 0.00 45 1013.8
20260830153003 96 306 3.0 7.0 0.00 0.00 0.00 44 1013.8
20260830152903 96 305 3.0 8.0 0.00 0.00 0.00 44 1013.8
20260830152803 96 304 4.0 8.0 0.00 0.00 0.00 44 1013.8
20260830152703 96 303 4.0 8.0 0.00 0.00 0.00 44 1013.8
20260830152603 96 302 3.0 8.0 0.00 0.00 0.00 44 1013.8
20260830152503 96 300 3.0 8.0 0.00 0.00 0.00 43 1013.9
20260830152403 96 300 3.0 8.0 0.00 0.00 0.00 43 1013.8
20260830152305 96 299 3.0 8.0 0.00 0.00 0.00 43 1013.9
20260830152203 96 299 3.0 8.0 0.00 0.00 0.00 43 1013.9
20260830152103 96 296 3.0 10.0 0.00 0.00 0.00 42 1013.9
20260830152003 96 298 4.0 10.0 0.00 0.00 0.00 42 1014.0
20260830151903 96 298 3.0 10.0 0.00 0.00 0.00 42 1013.9
20260830151803 96 298 3.0 10.0 0.00 0.00 0.00 41 1013.8
20260830151703 96 297 3.0 10.0 0.00 0.00 0.00 41 1013.7
20260830151603 96 296 3.0 10.0 0.00 0.00 0.00 41 1013.8
20260830151503 96 297 3.0 10.0 0.00 0.00 0.00 41 1013.7
20260830151403 96 298 4.0 10.0 0.00 0.00 0.00 41 1013.8
20260830151303 96 297 4.0 10.0 0.00 0.00 0.00 41 1013.8
20260830151203 96 297 4.0 10.0 0.00 0.00 0.00 41 1013.7
20260830151103 96 299 3.0 9.0 0.00 0.00 0.00 40 1013.7
20260830151003 97 298 3.0 9.0 0.00 0.00 0.00 40 1013.7
20260830150903 96 299 3.0 9.0 0.00 0.00 0.00 40 1013.8
20260830150803 97 299 3.0 9.0 0.00 0.00 0.00 39 1013.8
20260830150703 97 299 3.0 9.0 0.00 0.00 0.00 39 1013.8
20260830150603 97 301 2.0 9.0 0.00 0.00 0.00 39 1013.8
20260830150503 97 302 2.0 8.0 0.00 0.00 0.00 39 1013.8
20260830150403 97 302 2.0 7.0 0.00 0.00 0.00 39 1013.8
20260830150303 97 305 1.0 7.0 0.00 0.00 0.00 38 1013.8
20260830150203 97 306 1.0 7.0 0.00 0.00 0.00 38 1013.8
20260830150003 97 305 1.0 7.0 0.00 0.00 0.00 38 1013.9
20260830145903 97 303 1.0 7.0 0.00 0.00 0.00 38 1013.8
20260830145803 97 302 1.0 7.0 0.00 0.00 0.00 38 1013.8
20260830145703 97 305 1.0 6.0 0.00 0.00 0.00 38 1013.8
20260830145603 97 308 1.0 5.0 0.00 0.00 0.00 38 1013.8
20260830145503 96 317 1.0 5.0 0.00 0.00 0.00 38 1013.8
20260830145403 96 358 1.0 5.0 0.00 0.00 0.00 38 1013.8
20260830145306 96 64 1.0 5.0 0.00 0.00 0.00 38 1013.8
20260830145204 96 37 1.0 5.0 0.00 0.00 0.00 39 1013.8
20260830145104 96 43 1.0 5.0 0.00 0.00 0.00 39 1013.9
20260830145004 96 26 1.0 5.0 0.00 0.00 0.00 39 1013.9
20260830144904 96 64 1.0 5.0 0.00 0.00 0.00 39 1013.8
20260830144804 96 68 1.0 5.0 0.00 0.00 0.00 38 1013.9
20260830144704 96 83 1.0 5.0 0.00 0.00 0.00 38 1013.9
20260830144604 96 80 1.0 5.0 0.00 0.00 0.00 38 1013.9
20260830144504 96 101 1.0 5.0 0.00 0.00 0.00 39 1013.9
20260830144404 96 122 1.0 5.0 0.00 0.00 0.00 39 1014.0
20260830144304 96 115 1.0 5.0 0.00 0.00 0.00 39 1014.0
20260830144204 97 107 1.0 5.0 0.00 0.00 0.00 39 1014.0
20260830144104 96 113 1.0 5.0 0.00 0.00 0.00 38 1013.9
20260830144004 96 115 1.0 5.0 0.00 0.00 0.00 38 1013.8
20260830143904 97 107 1.0 5.0 0.00 0.00 0.00 39 1013.9
20260830143804 97 110 1.0 5.0 0.00 0.00 0.00 39 1013.9
20260830143704 97 102 1.0 5.0 0.00 0.00 0.00 39 1013.8
20260830143604 97 86 1.0 5.0 0.00 0.00 0.00 38 1013.9
20260830143504 97 79 1.0 5.0 0.00 0.00 0.00 38 1013.9
20260830143404 97 320 1.0 5.0 0.00 0.00 0.00 39 1013.9
20260830143304 97 307 2.0 7.0 0.00 0.00 0.00 38 1014.0
20260830143204 97 304 2.0 13.0 0.00 0.00 0.00 38 1014.0
20260830143104 97 301 2.0 13.0 0.00 0.00 0.00 38 1014.0
20260830143004 97 300 1.0 13.0 0.00 0.00 0.00 38 1014.1
20260830142904 97 301 1.0 13.0 0.00 0.00 0.00 38 1014.1
20260830142804 97 305 2.0 13.0 0.00 0.00 0.00 38 1013.8
20260830142704 97 301 1.0 13.0 0.00 0.00 0.00 37 1013.9
20260830142604 97 306 1.0 13.0 0.00 0.00 0.00 36 1013.9
20260830142504 97 351 1.0 13.0 0.00 0.00 0.00 36 1013.8
20260830142404 97 9 1.0 13.0 0.00 0.00 0.00 36 1013.8
20260830142305 97 105 1.0 13.0 0.00 0.00 0.00 37 1013.9
20260830142204 97 109 1.0 6.0 0.00 0.00 0.00 38 1014.0
20260830142104 97 102 0.0 6.0 0.00 0.00 0.00 38 1013.8
20260830142004 97 101 0.0 6.0 0.00 0.00 0.00 39 1014.0
20260830141904 97 101 0.0 3.0 0.00 0.00 0.00 39 1014.0
20260830141804 97 114 0.0 4.0 0.00 0.00 0.00 39 1013.9
20260830141704 97 113 1.0 4.0 0.00 0.00 0.00 39 1013.7
20260830141604 97 111 1.0 5.0 0.00 0.00 0.00 39 1013.8
20260830141504 97 111 1.0 5.0 0.00 0.00 0.00 39 1013.8
20260830141404 97 112 1.0 5.0 0.00 0.00 0.00 39 1013.8
20260830141304 97 112 1.0 5.0 0.00 0.00 0.00 39 1013.8
20260830141204 97 112 1.0 5.0 0.00 0.00 0.00 39 1013.7
20260830141103 97 112 1.0 5.0 0.00 0.00 0.00 39 1013.8
20260830141004 97 112 1.0 5.0 0.00 0.00 0.00 39 1013.7
20260830140904 97 112 1.0 5.0 0.00 0.00 0.00 38 1013.8
20260830140803 97 110 1.0 5.0 0.00 0.00 0.00 39 1013.8
20260830140703 97 103 0.0 6.0 0.00 0.00 0.00 39 1013.8
20260830140603 97 99 1.0 7.0 0.00 0.00 0.00 39 1013.8
20260830140503 97 97 1.0 7.0 0.00 0.00 0.00 40 1013.9
20260830140403 97 97 1.0 7.0 0.00 0.00 0.00 39 1013.9
20260830140303 97 97 1.0 7.0 0.00 0.00 0.00 40 1013.9
20260830140203 97 97 1.0 7.0 0.00 0.00 0.00 40 1013.9
20260830140004 97 97 1.0 7.0 0.00 0.00 0.00 40 1013.8
20260830135903 97 96 1.0 7.0 0.00 0.00 0.00 40 1013.8
20260830135803 97 97 1.0 7.0 0.00 0.00 0.00 39 1013.8
20260830135703 97 95 1.0 7.0 0.00 0.00 0.00 39 1013.8
20260830135603 98 96 1.0 6.0 0.00 0.00 0.00 39 1013.7
20260830135503 98 93 0.0 5.0 0.00 0.00 0.00 39 1013.7
20260830135403 98 95 1.0 5.0 0.00 0.00 0.00 38 1013.8
20260830135306 98 89 1.0 5.0 0.00 0.00 0.00 38 1013.8
20260830135203 98 94 1.0 5.0 0.00 0.00 0.00 38 1013.7
20260830135103 98 94 1.0 6.0 0.00 0.00 0.00 38 1013.7
20260830135003 98 96 1.0 6.0 0.00 0.00 0.00 38 1013.8
20260830134903 98 97 1.0 6.0 0.00 0.00 0.00 38 1013.7
20260830134803 98 96 1.0 6.0 0.00 0.00 0.00 38 1013.7
20260830134703 98 97 1.0 6.0 0.00 0.00 0.00 38 1013.7
20260830134603 98 97 1.0 6.0 0.00 0.00 0.00 38 1013.7
20260830134503 98 98 1.0 6.0 0.00 0.00 0.00 38 1013.7
20260830134403 98 98 1.0 6.0 0.00 0.00 0.00 37 1013.8
20260830134303 98 102 1.0 6.0 0.00 0.00 0.00 37 1013.8
20260830134203 98 102 1.0 6.0 0.00 0.00 0.00 37 1013.8
20260830134103 98 103 1.0 4.0 0.00 0.00 0.00 37 1013.8
20260830134003 98 104 1.0 4.0 0.00 0.00 0.00 37 1013.9
20260830133903 98 106 1.0 4.0 0.00 0.00 0.00 37 1013.9
20260830133803 98 108 0.0 4.0 0.00 0.00 0.00 36 1013.8
20260830133703 98 109 0.0 4.0 0.00 0.00 0.00 36 1013.7
20260830133603 99 109 0.0 4.0 0.00 0.00 0.00 36 1013.7
20260830133503 99 109 0.0 4.0 0.00 0.00 0.00 36 1013.7
20260830133403 99 109 0.0 4.0 0.00 0.00 0.00 36 1013.8
20260830133303 99 112 0.0 3.0 0.00 0.00 0.00 36 1013.7
20260830133203 99 112 0.0 2.0 0.00 0.00 0.00 36 1013.7
20260830133103 99 112 0.0 2.0 0.00 0.00 0.00 36 1013.6
20260830133003 99 112 0.0 2.0 0.00 0.00 0.00 37 1013.7
20260830132903 99 135 0.0 1.0 0.00 0.00 0.00 37 1013.6
20260830132803 99 135 0.0 1.0 0.00 0.00 0.00 37 1013.6
20260830132703 99 135 0.0 1.0 0.00 0.00 0.00 36 1013.6
20260830132603 99 117 0.0 1.0 0.00 0.00 0.00 36 1013.7
20260830132503 99 117 0.0 1.0 0.00 0.00 0.00 36 1013.8
20260830132403 99 105 0.0 1.0 0.00 0.00 0.00 36 1013.8
20260830132305 99 105 0.0 1.0 0.00 0.00 0.00 36 1013.8
20260830132203 100 105 0.0 1.0 0.00 0.00 0.00 36 1013.9
20260830132103 100 107 0.0 2.0 0.00 0.00 0.00 36 1013.8
20260830132003 100 98 0.0 4.0 0.00 0.00 0.00 36 1013.9
20260830131903 100 88 0.0 4.0 0.00 0.00 0.00 36 1013.9
20260830131803 100 96 0.0 5.0 0.00 0.00 0.00 36 1013.8
20260830131703 100 93 0.0 5.0 0.00 0.00 0.00 35 1013.9
20260830131603 100 94 0.0 5.0 0.00 0.00 0.00 35 1013.8
20260830131503 100 94 1.0 5.0 0.00 0.00 0.00 35 1013.7
20260830131403 100 96 1.0 5.0 0.00 0.00 0.00 33 1013.7
20260830131303 100 101 1.0 5.0 0.00 0.00 0.00 33 1013.8
20260830131203 100 101 1.0 5.0 0.00 0.00 0.00 33 1013.8
20260830131103 100 101 1.0 5.0 0.00 0.00 0.00 32 1013.8
20260830131003 100 102 1.0 5.0 0.00 0.00 0.00 31 1013.8
20260830130903 100 103 1.0 5.0 0.00 0.00 0.00 30 1013.8
20260830130803 100 103 1.0 4.0 0.00 0.00 0.00 30 1013.8
20260830130703 100 105 1.0 4.0 0.00 0.00 0.00 30 1013.8
20260830130603 100 106 1.0 4.0 0.00 0.00 0.00 30 1013.7
20260830130503 100 107 1.0 4.0 0.00 0.00 0.00 30 1013.8
20260830130403 100 108 1.0 4.0 0.00 0.00 0.00 30 1013.8
20260830130303 100 106 1.0 4.0 0.00 0.00 0.00 30 1013.8
20260830130203 100 107 1.0 4.0 0.00 0.00 0.00 30 1013.8
20260830130003 99 108 1.0 4.0 0.00 0.00 0.00 31 1013.8
20260830125903 99 108 1.0 4.0 0.00 0.00 0.00 31 1013.8
20260830125803 99 107 1.0 4.0 0.00 0.00 0.00 31 1013.8
20260830125703 99 107 1.0 4.0 0.00 0.00 0.00 32 1013.8
20260830125603 99 107 1.0 4.0 0.00 0.00 0.00 32 1013.8
20260830125503 99 107 1.0 4.0 0.00 0.00 0.00 32 1013.8
20260830125403 99 106 1.0 4.0 0.00 0.00 0.00 33 1013.8
20260830125306 99 107 1.0 4.0 0.00 0.00 0.00 33 1013.8
20260830125203 99 108 1.0 5.0 0.00 0.00 0.00 33 1013.9
20260830125103 99 109 1.0 6.0 0.00 0.00 0.00 33 1013.9
20260830125003 99 109 1.0 6.0 0.00 0.00 0.00 33 1013.8
20260830124903 99 108 1.0 6.0 0.00 0.00 0.00 33 1013.9
20260830124803 99 110 1.0 6.0 0.00 0.00 0.00 33 1014.0
20260830124703 99 110 1.0 6.0 0.00 0.00 0.00 33 1013.9
20260830124603 99 110 1.0 6.0 0.00 0.00 0.00 33 1014.1
20260830124503 99 109 1.0 6.0 0.00 0.00 0.00 33 1014.0
20260830124403 99 110 1.0 6.0 0.00 0.00 0.00 33 1014.0
20260830124303 99 109 1.0 6.0 0.00 0.00 0.00 33 1014.0
20260830124203 99 109 1.0 6.0 0.00 0.00 0.00 33 1014.0
20260830124103 99 108 1.0 6.0 0.00 0.00 0.00 32 1014.0
20260830124003 99 108 1.0 6.0 0.00 0.00 0.00 32 1014.0
20260830123903 99 109 1.0 6.0 0.00 0.00 0.00 32 1014.1
20260830123803 99 109 1.0 6.0 0.00 0.00 0.00 32 1014.1
20260830123703 99 109 1.0 6.0 0.00 0.00 0.00 32 1014.2
20260830123603 99 109 1.0 6.0 0.00 0.00 0.00 32 1014.1
20260830123503 99 109 2.0 6.0 0.00 0.00 0.00 32 1014.2
20260830123403 99 108 2.0 6.0 0.00 0.00 0.00 32 1014.1
20260830123303 99 107 2.0 6.0 0.00 0.00 0.00 32 1014.1
20260830123203 99 106 1.0 4.0 0.00 0.00 0.00 32 1014.1
20260830123103 99 106 1.0 4.0 0.00 0.00 0.00 32 1014.1
20260830123003 99 106 1.0 5.0 0.00 0.00 0.00 32 1014.1
20260830122904 99 105 1.0 5.0 0.00 0.00 0.00 32 1014.2
20260830122804 99 105 1.0 5.0 0.00 0.00 0.00 32 1014.1
20260830122704 99 105 2.0 5.0 0.00 0.00 0.00 32 1014.2
20260830122604 99 104 1.0 5.0 0.00 0.00 0.00 32 1014.1
20260830122504 99 103 1.0 5.0 0.00 0.00 0.00 32 1014.1
20260830122404 99 103 1.0 5.0 0.00 0.00 0.00 32 1014.1
20260830122306 99 107 1.0 5.0 0.00 0.00 0.00 32 1014.1
20260830122204 99 106 1.0 5.0 0.00 0.00 0.00 32 1014.1
20260830122104 99 104 1.0 5.0 0.00 0.00 0.00 32 1014.1
20260830122004 99 104 1.0 5.0 0.00 0.00 0.00 32 1014.1
20260830121904 99 106 2.0 5.0 0.00 0.00 0.00 33 1014.2
20260830121804 99 106 2.0 5.0 0.00 0.00 0.00 33 1014.3
20260830121704 99 107 1.0 5.0 0.00 0.00 0.00 33 1014.3
20260830121604 99 107 2.0 5.0 0.00 0.00 0.00 33 1014.4
20260830121504 99 108 2.0 5.0 0.00 0.00 0.00 33 1014.3
20260830121404 99 109 2.0 5.0 0.00 0.00 0.00 33 1014.3
20260830121304 99 108 1.0 5.0 0.00 0.00 0.00 33 1014.4
20260830121204 99 109 1.0 5.0 0.00 0.00 0.00 33 1014.4
20260830121104 99 110 1.0 5.0 0.00 0.00 0.00 33 1014.3
20260830121004 99 109 1.0 5.0 0.00 0.00 0.00 32 1014.3
20260830120904 99 109 1.0 6.0 0.00 0.00 0.00 32 1014.4
20260830120804 99 108 1.0 6.0 0.00 0.00 0.00 32 1014.4
20260830120704 99 107 1.0 6.0 0.00 0.00 0.00 32 1014.4
20260830120604 99 108 1.0 6.0 0.00 0.00 0.00 33 1014.5
20260830120504 99 107 1.0 6.0 0.00 0.00 0.00 32 1014.4
20260830120404 99 105 1.0 7.0 0.00 0.00 0.00 32 1014.5
20260830120304 99 103 1.0 9.0 0.00 0.00 0.00 32 1014.5
20260830120204 99 103 1.0 9.0 0.00 0.00 0.00 32 1014.6
20260830120104 99 103 1.0 9.0 0.00 0.00 0.00 32 1014.5
20260830120004 99 104 1.0 9.0 0.00 0.00 0.00 32 1014.5
20260830115904 99 104 1.0 9.0 0.00 0.00 0.00 32 1014.6
20260830115804 99 104 1.0 9.0 0.00 0.00 0.00 31 1014.5
20260830115704 99 103 1.0 9.0 0.00 0.00 0.00 31 1014.5
20260830115604 99 102 1.0 9.0 0.00 0.00 0.00 30 1014.6
20260830115504 99 102 1.0 9.0 0.00 0.00 0.00 30 1014.5
20260830115404 99 103 1.0 9.0 0.00 0.00 0.00 30 1014.5
20260830115306 99 104 1.0 4.0 0.00 0.00 0.00 30 1014.5
20260830115204 99 104 1.0 4.0 0.00 0.00 0.00 30 1014.5
20260830115104 99 103 1.0 3.0 0.00 0.00 0.00 30 1014.6
20260830115004 99 104 1.0 5.0 0.00 0.00 0.00 30 1014.6
20260830114904 99 102 1.0 5.0 0.00 0.00 0.00 30 1014.5
20260830114804 99 101 1.0 5.0 0.00 0.00 0.00 30 1014.6
20260830114703 99 102 1.0 5.0 0.00 0.00 0.00 30 1014.5
20260830114604 99 103 1.0 5.0 0.00 0.00 0.00 30 1014.5
20260830114504 99 106 1.0 5.0 0.00 0.00 0.00 30 1014.6
20260830114404 99 106 1.0 5.0 0.00 0.00 0.00 30 1014.7
20260830114304 99 107 2.0 5.0 0.00 0.00 0.00 30 1014.7
20260830114203 99 106 2.0 5.0 0.00 0.00 0.00 30 1014.7
20260830114104 99 106 2.0 5.0 0.00 0.00 0.00 30 1014.7
20260830114004 99 106 2.0 5.0 0.00 0.00 0.00 30 1014.6
20260830113904 99 107 2.0 5.0 0.00 0.00 0.00 30 1014.7
20260830113804 99 108 2.0 5.0 0.00 0.00 0.00 30 1014.7
20260830113703 99 108 2.0 5.0 0.00 0.00 0.00 30 1014.7
20260830113604 99 108 2.0 5.0 0.00 0.00 0.00 30 1014.7
20260830113504 99 107 2.0 5.0 0.00 0.00 0.00 30 1014.7
20260830113403 99 106 2.0 4.0 0.00 0.00 0.00 30 1014.8
20260830113304 99 106 2.0 4.0 0.00 0.00 0.00 30 1014.8
20260830113203 99 107 1.0 4.0 0.00 0.00 0.00 30 1014.8
20260830113104 99 107 1.0 4.0 0.00 0.00 0.00 30 1014.8
20260830113004 98 107 1.0 4.0 0.00 0.00 0.00 30 1014.8
20260830112903 98 107 1.0 4.0 0.00 0.00 0.00 30 1014.7
20260830112804 99 104 1.0 4.0 0.00 0.00 0.00 30 1014.7
20260830112704 98 104 1.0 4.0 0.00 0.00 0.00 30 1014.8
20260830112604 98 102 1.0 4.0 0.00 0.00 0.00 30 1014.7
20260830112503 98 103 1.0 4.0 0.00 0.00 0.00 30 1014.8
20260830112403 98 104 2.0 4.0 0.00 0.00 0.00 30 1014.8
20260830112306 98 103 1.0 4.0 0.00 0.00 0.00 30 1014.7
20260830112203 98 102 1.0 4.0 0.00 0.00 0.00 30 1014.8
20260830112103 98 103 1.0 5.0 0.00 0.00 0.00 30 1014.7
20260830112003 98 104 1.0 5.0 0.00 0.00 0.00 30 1014.6
20260830111903 98 104 1.0 5.0 0.00 0.00 0.00 30 1014.8
20260830111803 98 107 1.0 6.0 0.00 0.00 0.00 30 1014.9
20260830111703 98 108 1.0 6.0 0.00 0.00 0.00 30 1014.8
20260830111603 98 106 2.0 6.0 0.00 0.00 0.00 30 1014.8
20260830111503 98 106 2.0 6.0 0.00 0.00 0.00 30 1014.8
20260830111403 98 106 1.0 6.0 0.00 0.00 0.00 31 1014.8
20260830111303 98 105 2.0 6.0 0.00 0.00 0.00 31 1014.8
20260830111203 98 105 2.0 6.0 0.00 0.00 0.00 31 1014.7
20260830111103 98 105 1.0 6.0 0.00 0.00 0.00 30 1014.7
20260830111003 98 104 1.0 6.0 0.00 0.00 0.00 31 1014.7
20260830110903 98 104 1.0 6.0 0.00 0.00 0.00 31 1014.7
20260830110803 98 103 1.0 4.0 0.00 0.00 0.00 31 1014.8
20260830110703 97 103 1.0 4.0 0.00 0.00 0.00 31 1014.8
20260830110603 97 107 1.0 4.0 0.00 0.00 0.00 31 1014.9
20260830110503 97 106 1.0 4.0 0.00 0.00 0.00 32 1014.9
20260830110403 97 105 1.0 4.0 0.00 0.00 0.00 32 1014.9
20260830110303 97 108 1.0 4.0 0.00 0.00 0.00 32 1014.8
20260830110203 97 109 1.0 4.0 0.00 0.00 0.00 31 1014.8
20260830110103 97 109 1.0 4.0 0.00 0.00 0.00 31 1014.9
20260830110004 97 110 1.0 4.0 0.00 0.00 0.00 32 1014.9
20260830105903 97 109 1.0 4.0 0.00 0.00 0.00 31 1015.0
20260830105803 97 108 1.0 4.0 0.00 0.00 0.00 32 1015.0
20260830105703 97 109 1.0 4.0 0.00 0.00 0.00 32 1015.0
20260830105603 97 108 1.0 4.0 0.00 0.00 0.00 32 1015.0
20260830105503 97 110 1.0 6.0 0.00 0.00 0.00 32 1015.0
20260830105403 97 111 1.0 6.0 0.00 0.00 0.00 32 1014.9
20260830105305 97 110 1.0 6.0 0.00 0.00 0.00 32 1015.0
20260830105203 97 110 1.0 6.0 0.00 0.00 0.00 33 1014.9
20260830105103 97 111 1.0 6.0 0.00 0.00 0.00 33 1014.8
20260830105003 97 111 1.0 6.0 0.00 0.00 0.00 33 1014.9
20260830104903 97 112 1.0 6.0 0.00 0.00 0.00 33 1015.0
20260830104803 97 110 1.0 6.0 0.00 0.00 0.00 33 1015.1
20260830104703 97 104 1.0 6.0 0.00 0.00 0.00 33 1014.9
20260830104603 97 103 1.0 6.0 0.00 0.00 0.00 33 1014.8
20260830104503 96 98 1.0 6.0 0.00 0.00 0.00 34 1014.8
20260830104403 96 100 1.0 8.0 0.00 0.00 0.00 34 1014.8
20260830104303 96 98 1.0 8.0 0.00 0.00 0.00 34 1014.8
20260830104203 96 98 1.0 8.0 0.00 0.00 0.00 34 1014.8
20260830104103 96 97 1.0 8.0 0.00 0.00 0.00 36 1014.8
20260830104003 96 97 1.0 8.0 0.00 0.00 0.00 36 1014.8
20260830103903 96 96 1.0 8.0 0.00 0.00 0.00 35 1014.8
20260830103803 96 95 1.0 8.0 0.00 0.00 0.00 36 1014.9
20260830103703 96 99 1.0 8.0 0.00 0.00 0.00 37 1014.8
20260830103603 96 102 1.0 8.0 0.00 0.00 0.00 35 1014.9
20260830103503 96 100 1.0 8.0 0.00 0.00 0.00 37 1015.0
20260830103403 96 95 1.0 5.0 0.00 0.00 0.00 38 1015.0
20260830103303 95 98 0.0 5.0 0.00 0.00 0.00 38 1015.0
20260830103203 95 100 0.0 4.0 0.00 0.00 0.00 39 1015.1
20260830103103 95 101 0.0 4.0 0.00 0.00 0.00 39 1015.1
20260830103003 95 103 1.0 7.0 0.00 0.00 0.00 40 1015.1
20260830102903 95 104 1.0 7.0 0.00 0.00 0.00 40 1015.1
20260830102803 95 103 1.0 7.0 0.00 0.00 0.00 41 1015.1
20260830102703 95 103 1.0 7.0 0.00 0.00 0.00 41 1015.0
20260830102603 95 105 1.0 7.0 0.00 0.00 0.00 42 1015.0
20260830102503 94 108 1.0 7.0 0.00 0.00 0.00 43 1015.1
20260830102403 94 107 1.0 7.0 0.00 0.00 0.00 43 1015.0
20260830102306 94 108 1.0 7.0 0.00 0.00 0.00 43 1015.0
20260830102203 94 108 1.0 7.0 0.00 0.00 0.00 43 1015.0
20260830102103 94 107 1.0 7.0 0.00 0.00 0.00 45 1015.0
20260830102003 94 110 1.0 5.0 0.00 0.00 0.00 45 1015.0
20260830101903 94 109 1.0 5.0 0.00 0.00 0.00 46 1015.1
20260830101803 94 108 1.0 5.0 0.00 0.00 0.00 46 1015.1
20260830101703 94 110 1.0 5.0 0.00 0.00 0.00 46 1015.0
20260830101603 94 109 1.0 5.0 0.00 0.00 0.00 46 1015.1
20260830101503 94 107 1.0 5.0 0.00 0.00 0.00 46 1015.1
20260830101403 94 110 1.0 6.0 0.00 0.00 0.00 46 1015.1
20260830101303 94 109 1.0 6.0 0.00 0.00 0.00 46 1015.1
20260830101203 94 110 1.0 6.0 0.00 0.00 0.00 46 1015.1
20260830101104 94 111 2.0 6.0 0.00 0.00 0.00 46 1015.1
20260830101004 94 110 1.0 6.0 0.00 0.00 0.00 46 1015.1
20260830100904 94 110 2.0 6.0 0.00 0.00 0.00 46 1015.1
20260830100804 94 111 1.0 6.0 0.00 0.00 0.00 45 1015.1
20260830100704 94 110 1.0 6.0 0.00 0.00 0.00 46 1015.1
20260830100604 94 111 1.0 6.0 0.00 0.00 0.00 45 1015.1
20260830100504 94 110 1.0 6.0 0.00 0.00 0.00 45 1015.1
20260830100404 94 107 1.0 6.0 0.00 0.00 0.00 45 1015.1
20260830100304 94 109 1.0 6.0 0.00 0.00 0.00 45 1015.1
20260830100204 94 108 1.0 5.0 0.00 0.00 0.00 45 1015.1
20260830100104 94 106 1.0 5.0 0.00 0.00 0.00 45 1015.1
20260830100004 94 109 1.0 6.0 0.00 0.00 0.00 45 1015.1
20260830095904 94 111 1.0 6.0 0.00 0.00 0.00 45 1015.1
20260830095804 94 110 1.0 6.0 0.00 0.00 0.00 45 1015.2
20260830095704 94 110 2.0 6.0 0.00 0.00 0.00 45 1015.1
20260830095604 94 110 2.0 6.0 0.00 0.00 0.00 45 1015.1
20260830095504 94 111 2.0 6.0 0.00 0.00 0.00 45 1015.0
20260830095404 94 111 2.0 6.0 0.00 0.00 0.00 45 1015.1
20260830095306 94 111 2.0 6.0 0.00 0.00 0.00 44 1015.2
20260830095204 94 110 2.0 6.0 0.00 0.00 0.00 44 1015.1
20260830095104 94 111 2.0 6.0 0.00 0.00 0.00 44 1015.1
20260830095004 95 110 2.0 6.0 0.00 0.00 0.00 44 1015.1
20260830094904 95 110 1.0 6.0 0.00 0.00 0.00 44 1015.1
20260830094804 95 108 1.0 5.0 0.00 0.00 0.00 43 1015.2
20260830094704 95 108 1.0 5.0 0.00 0.00 0.00 43 1015.2
20260830094604 95 108 1.0 5.0 0.00 0.00 0.00 43 1015.2
20260830094504 95 106 1.0 6.0 0.00 0.00 0.00 43 1015.1
20260830094404 95 105 1.0 6.0 0.00 0.00 0.00 43 1015.1
20260830094304 95 104 1.0 6.0 0.00 0.00 0.00 42 1015.2
20260830094204 95 105 1.0 6.0 0.00 0.00 0.00 42 1015.1
20260830094104 95 104 1.0 6.0 0.00 0.00 0.00 42 1015.1
20260830094004 95 104 1.0 6.0 0.00 0.00 0.00 41 1015.0
20260830093904 95 104 1.0 6.0 0.00 0.00 0.00 41 1015.0
20260830093804 95 106 2.0 6.0 0.00 0.00 0.00 41 1015.0
20260830093704 95 105 2.0 6.0 0.00 0.00 0.00 41 1014.9
20260830093604 95 106 2.0 6.0 0.00 0.00 0.00 40 1015.1
20260830093504 95 107 2.0 6.0 0.00 0.00 0.00 40 1015.0
20260830093404 95 106 2.0 6.0 0.00 0.00 0.00 39 1015.0
20260830093304 95 107 1.0 6.0 0.00 0.00 0.00 39 1015.1
20260830093204 95 107 2.0 6.0 0.00 0.00 0.00 39 1015.1
20260830093104 95 108 2.0 6.0 0.00 0.00 0.00 39 1015.0
20260830093004 95 107 2.0 6.0 0.00 0.00 0.00 39 1015.0
20260830092904 96 105 2.0 6.0 0.00 0.00 0.00 38 1015.0
20260830092804 95 105 2.0 6.0 0.00 0.00 0.00 38 1015.0
20260830092704 95 104 2.0 6.0 0.00 0.00 0.00 38 1015.1
20260830092604 95 104 1.0 5.0 0.00 0.00 0.00 38 1015.1
20260830092504 95 104 1.0 5.0 0.00 0.00 0.00 38 1014.9
20260830092404 95 105 1.0 5.0 0.00 0.00 0.00 38 1015.0
20260830092305 95 106 1.0 5.0 0.00 0.00 0.00 38 1015.1
20260830092204 95 105 1.0 5.0 0.00 0.00 0.00 38 1015.0
20260830092104 95 106 1.0 5.0 0.00 0.00 0.00 39 1015.2
20260830092004 95 106 1.0 4.0 0.00 0.00 0.00 39 1015.1
20260830091903 95 111 1.0 4.0 0.00 0.00 0.00 39 1015.1
20260830091804 95 111 1.0 4.0 0.00 0.00 0.00 39 1015.1
20260830091704 95 111 1.0 4.0 0.00 0.00 0.00 39 1015.1
20260830091603 95 111 1.0 4.0 0.00 0.00 0.00 39 1015.1
20260830091504 95 111 1.0 4.0 0.00 0.00 0.00 39 1015.2
20260830091404 95 111 1.0 4.0 0.00 0.00 0.00 39 1015.1
20260830091304 95 112 0.0 4.0 0.00 0.00 0.00 39 1015.1
20260830091204 95 112 0.0 4.0 0.00 0.00 0.00 38 1014.9
20260830091103 95 112 0.0 3.0 0.00 0.00 0.00 38 1015.0
20260830091003 95 112 0.0 3.0 0.00 0.00 0.00 38 1015.0
20260830090904 95 112 0.0 3.0 0.00 0.00 0.00 37 1015.0
20260830090803 95 112 0.0 2.0 0.00 0.00 0.00 37 1015.1
20260830090704 96 112 0.0 2.0 0.00 0.00 0.00 37 1015.1
20260830090604 96 112 0.0 2.0 0.00 0.00 0.00 37 1015.0
20260830090503 96 112 0.0 2.0 0.00 0.00 0.00 37 1015.0
20260830090403 96 112 0.0 3.0 0.00 0.00 0.00 35 1015.0
20260830090303 96 108 0.0 3.0 0.00 0.00 0.00 35 1015.0
20260830090203 96 103 0.0 3.0 0.00 0.00 0.00 35 1015.0
20260830090104 96 102 0.0 3.0 0.00 0.00 0.00 35 1015.1
20260830090004 96 101 0.0 3.0 0.00 0.00 0.00 34 1014.9
20260830085903 96 101 0.0 3.0 0.00 0.00 0.00 34 1015.1
20260830085803 96 99 0.0 3.0 0.00 0.00 0.00 34 1015.0
20260830085703 96 99 0.0 3.0 0.00 0.00 0.00 34 1014.9
20260830085603 96 100 0.0 3.0 0.00 0.00 0.00 34 1014.9
20260830085503 96 102 0.0 3.0 0.00 0.00 0.00 34 1015.0
20260830085403 96 100 0.0 3.0 0.00 0.00 0.00 34 1015.0
20260830085306 96 102 0.0 3.0 0.00 0.00 0.00 33 1014.9
20260830085203 96 105 0.0 3.0 0.00 0.00 0.00 33 1014.9
20260830085103 96 107 0.0 3.0 0.00 0.00 0.00 33 1014.9
20260830085003 96 107 0.0 2.0 0.00 0.00 0.00 33 1014.9
20260830084903 96 104 0.0 2.0 0.00 0.00 0.00 33 1014.9
20260830084803 96 102 1.0 2.0 0.00 0.00 0.00 33 1014.9
20260830084703 96 101 1.0 2.0 0.00 0.00 0.00 33 1014.9
20260830084603 96 100 1.0 2.0 0.00 0.00 0.00 33 1014.9
20260830084503 96 97 1.0 2.0 0.00 0.00 0.00 33 1014.9
20260830084403 96 99 1.0 2.0 0.00 0.00 0.00 33 1014.9
20260830084303 96 97 1.0 2.0 0.00 0.00 0.00 33 1014.9
20260830084203 97 97 1.0 2.0 0.00 0.00 0.00 32 1014.9
20260830084103 97 94 0.0 2.0 0.00 0.00 0.00 32 1015.0
20260830084003 97 98 1.0 3.0 0.00 0.00 0.00 32 1014.9
20260830083903 97 102 1.0 4.0 0.00 0.00 0.00 32 1014.9
20260830083803 97 107 1.0 4.0 0.00 0.00 0.00 32 1015.0
20260830083703 97 106 1.0 4.0 0.00 0.00 0.00 32 1014.9
20260830083603 97 108 1.0 4.0 0.00 0.00 0.00 32 1014.9
20260830083503 97 108 1.0 4.0 0.00 0.00 0.00 32 1015.0
20260830083403 97 108 1.0 4.0 0.00 0.00 0.00 32 1015.0
20260830083303 97 109 1.0 4.0 0.00 0.00 0.00 33 1014.9
20260830083203 97 110 1.0 4.0 0.00 0.00 0.00 32 1014.9
20260830083103 97 110 1.0 4.0 0.00 0.00 0.00 32 1014.9
20260830083003 97 109 1.0 4.0 0.00 0.00 0.00 32 1015.0
20260830082903 97 109 1.0 4.0 0.00 0.00 0.00 32 1015.0
20260830082803 97 109 1.0 4.0 0.00 0.00 0.00 33 1014.9
20260830082703 97 111 1.0 4.0 0.00 0.00 0.00 33 1015.1
20260830082603 97 110 1.0 4.0 0.00 0.00 0.00 34 1015.0
20260830082503 97 109 1.0 4.0 0.00 0.00 0.00 33 1014.9
20260830082403 97 108 1.0 4.0 0.00 0.00 0.00 33 1015.0
20260830082306 97 107 1.0 4.0 0.00 0.00 0.00 34 1014.9
20260830082203 96 107 1.0 4.0 0.00 0.00 0.00 34 1014.9
20260830082103 96 104 1.0 4.0 0.00 0.00 0.00 34 1014.8
20260830082003 96 104 1.0 4.0 0.00 0.00 0.00 34 1014.9
20260830081903 96 104 1.0 4.0 0.00 0.00 0.00 34 1014.8
20260830081803 96 104 2.0 4.0 0.00 0.00 0.00 34 1014.9
20260830081703 96 104 1.0 4.0 0.00 0.00 0.00 34 1014.9
20260830081603 96 103 1.0 4.0 0.00 0.00 0.00 34 1014.8
20260830081503 96 104 1.0 4.0 0.00 0.00 0.00 34 1014.7
20260830081403 96 104 1.0 4.0 0.00 0.00 0.00 34 1014.7
20260830081303 96 104 1.0 4.0 0.00 0.00 0.00 34 1014.7
20260830081203 96 104 1.0 4.0 0.00 0.00 0.00 34 1014.7
20260830081103 96 107 1.0 4.0 0.00 0.00 0.00 35 1014.8
20260830081003 96 107 1.0 4.0 0.00 0.00 0.00 36 1014.7
20260830080903 96 105 1.0 4.0 0.00 0.00 0.00 37 1014.8
20260830080803 96 104 1.0 3.0 0.00 0.00 0.00 37 1014.7
20260830080703 96 103 1.0 3.0 0.00 0.00 0.00 37 1014.7
20260830080603 96 101 1.0 3.0 0.00 0.00 0.00 38 1014.7
20260830080503 96 100 1.0 3.0 0.00 0.00 0.00 38 1014.6
20260830080403 96 99 1.0 3.0 0.00 0.00 0.00 38 1014.7
20260830080303 96 99 1.0 3.0 0.00 0.00 0.00 38 1014.8
20260830080203 96 98 1.0 3.0 0.00 0.00 0.00 38 1014.8
20260830080003 96 93 0.0 3.0 0.00 0.00 0.00 39 1014.7
20260830075903 96 94 0.0 3.0 0.00 0.00 0.00 39 1014.7
20260830075803 96 89 0.0 2.0 0.00 0.00 0.00 40 1014.7
20260830075703 96 94 0.0 2.0 0.00 0.00 0.00 40 1014.7
20260830075603 95 93 0.0 2.0 0.00 0.00 0.00 41 1014.7
20260830075503 95 94 0.0 2.0 0.00 0.00 0.00 41 1014.8
20260830075403 95 94 0.0 2.0 0.00 0.00 0.00 42 1014.8
20260830075306 95 94 0.0 2.0 0.00 0.00 0.00 42 1014.8
20260830075203 95 93 0.0 2.0 0.00 0.00 0.00 42 1014.7
20260830075103 95 92 1.0 4.0 0.00 0.00 0.00 42 1014.7
20260830075003 95 97 1.0 4.0 0.00 0.00 0.00 42 1014.7
20260830074903 95 98 1.0 4.0 0.00 0.00 0.00 42 1014.7
20260830074804 95 99 1.0 4.0 0.00 0.00 0.00 42 1014.7
20260830074704 95 98 1.0 4.0 0.00 0.00 0.00 42 1014.7
20260830074604 95 98 1.0 4.0 0.00 0.00 0.00 43 1014.8
20260830074504 95 97 1.0 4.0 0.00 0.00 0.00 43 1014.8
20260830074404 95 97 1.0 4.0 0.00 0.00 0.00 44 1014.7
20260830074304 95 97 1.0 4.0 0.00 0.00 0.00 44 1014.7
20260830074204 95 97 1.0 4.0 0.00 0.00 0.00 44 1014.8
20260830074104 95 98 1.0 4.0 0.00 0.00 0.00 45 1014.7
20260830074004 95 95 1.0 4.0 0.00 0.00 0.00 45 1014.8
20260830073904 94 93 1.0 4.0 0.00 0.00 0.00 46 1014.6
20260830073804 94 91 1.0 3.0 0.00 0.00 0.00 48 1014.6
20260830073704 94 93 1.0 3.0 0.00 0.00 0.00 48 1014.6
20260830073604 94 96 1.0 3.0 0.00 0.00 0.00 49 1014.5
20260830073504 94 97 1.0 3.0 0.00 0.00 0.00 49 1014.5
20260830073404 94 97 1.0 3.0 0.00 0.00 0.00 50 1014.6
20260830073304 94 96 1.0 3.0 0.00 0.00 0.00 50 1014.5
20260830073204 94 96 1.0 3.0 0.00 0.00 0.00 50 1014.5
20260830073104 94 97 1.0 3.0 0.00 0.00 0.00 51 1014.5
20260830073004 94 96 1.0 3.0 0.00 0.00 0.00 51 1014.6
20260830072904 94 96 1.0 3.0 0.00 0.00 0.00 52 1014.6
20260830072804 94 97 1.0 3.0 0.00 0.00 0.00 52 1014.7
20260830072704 94 97 1.0 3.0 0.00 0.00 0.00 53 1014.7
20260830072604 94 98 1.0 3.0 0.00 0.00 0.00 53 1014.6
20260830072504 94 99 1.0 3.0 0.00 0.00 0.00 53 1014.7
20260830072404 94 101 1.0 3.0 0.00 0.00 0.00 54 1014.8
20260830072306 94 104 1.0 3.0 0.00 0.00 0.00 54 1014.8
20260830072204 94 105 1.0 3.0 0.00 0.00 0.00 54 1014.6
20260830072104 94 106 1.0 3.0 0.00 0.00 0.00 54 1014.6
20260830072004 94 107 1.0 3.0 0.00 0.00 0.00 54 1014.7
20260830071904 94 112 1.0 3.0 0.00 0.00 0.00 54 1014.6
20260830071804 94 112 1.0 3.0 0.00 0.00 0.00 54 1014.6
20260830071704 94 112 0.0 3.0 0.00 0.00 0.00 54 1014.7
20260830071604 94 112 0.0 3.0 0.00 0.00 0.00 54 1014.7
20260830071504 94 112 0.0 3.0 0.00 0.00 0.00 54 1014.6
20260830071404 94 112 0.0 3.0 0.00 0.00 0.00 54 1014.6
20260830071304 93 112 0.0 2.0 0.00 0.00 0.00 54 1014.6
20260830071204 93 111 0.0 2.0 0.00 0.00 0.00 54 1014.6
20260830071104 93 111 0.0 2.0 0.00 0.00 0.00 54 1014.6
20260830071004 93 111 0.0 2.0 0.00 0.00 0.00 54 1014.7
20260830070904 93 111 0.0 2.0 0.00 0.00 0.00 54 1014.6
20260830070804 93 111 0.0 2.0 0.00 0.00 0.00 54 1014.6
20260830070704 93 111 0.0 2.0 0.00 0.00 0.00 54 1014.7
20260830070603 93 111 0.0 4.0 0.00 0.00 0.00 54 1014.6
20260830070504 93 111 0.0 4.0 0.00 0.00 0.00 54 1014.5
20260830070404 93 111 0.0 4.0 0.00 0.00 0.00 53 1014.6
20260830070304 93 109 0.0 4.0 0.00 0.00 0.00 53 1014.6
20260830070204 93 108 0.0 4.0 0.00 0.00 0.00 53 1014.5
20260830070104 93 109 0.0 4.0 0.00 0.00 0.00 53 1014.4
20260830070004 93 109 0.0 4.0 0.00 0.00 0.00 54 1014.5
20260830065904 93 109 0.0 4.0 0.00 0.00 0.00 54 1014.5
20260830065804 93 109 0.0 4.0 0.00 0.00 0.00 54 1014.5
20260830065704 93 106 0.0 4.0 0.00 0.00 0.00 54 1014.6
20260830065604 93 90 0.0 2.0 0.00 0.00 0.00 54 1014.7
20260830065503 93 90 0.0 2.0 0.00 0.00 0.00 54 1014.6
20260830065403 93 90 0.0 2.0 0.00 0.00 0.00 54 1014.7
20260830065306 93 0 0.0 0.0 0.00 0.00 0.00 54 1014.6
20260830065203 93 0 0.0 0.0 0.00 0.00 0.00 54 1014.8
20260830065103 93 0 0.0 0.0 0.00 0.00 0.00 53 1014.8
20260830065003 93 0 0.0 0.0 0.00 0.00 0.00 53 1014.8
20260830064903 93 0 0.0 0.0 0.00 0.00 0.00 53 1014.7
20260830064803 93 0 0.0 0.0 0.00 0.00 0.00 53 1014.6
20260830064703 92 0 0.0 0.0 0.00 0.00 0.00 53 1014.4
20260830064603 92 0 0.0 0.0 0.00 0.00 0.00 53 1014.5
20260830064503 92 0 0.0 0.0 0.00 0.00 0.00 53 1014.5
20260830064403 92 0 0.0 0.0 0.00 0.00 0.00 53 1014.5
20260830064303 92 0 0.0 0.0 0.00 0.00 0.00 53 1014.5
20260830064203 92 0 0.0 0.0 0.00 0.00 0.00 54 1014.5
20260830064103 91 0 0.0 0.0 0.00 0.00 0.00 54 1014.5
20260830064003 91 0 0.0 0.0 0.00 0.00 0.00 54 1014.5
20260830063903 91 0 0.0 0.0 0.00 0.00 0.00 54 1014.6
20260830063803 91 0 0.0 0.0 0.00 0.00 0.00 54 1014.5
20260830063703 91 0 0.0 0.0 0.00 0.00 0.00 54 1014.7
20260830063603 90 0 0.0 0.0 0.00 0.00 0.00 54 1014.7
20260830063503 90 0 0.0 0.0 0.00 0.00 0.00 55 1014.5
20260830063403 90 0 0.0 0.0 0.00 0.00 0.00 56 1014.6
20260830063303 90 0 0.0 0.0 0.00 0.00 0.00 56 1014.6
20260830063203 90 0 0.0 0.0 0.00 0.00 0.00 57 1014.8
20260830063103 90 0 0.0 0.0 0.00 0.00 0.00 57 1014.8
20260830063003 90 0 0.0 0.0 0.00 0.00 0.00 58 1014.7
20260830062903 89 0 0.0 0.0 0.00 0.00 0.00 58 1014.7
20260830062803 89 0 0.0 0.0 0.00 0.00 0.00 58 1014.6
20260830062703 89 0 0.0 0.0 0.00 0.00 0.00 58 1014.7
20260830062603 89 0 0.0 0.0 0.00 0.00 0.00 58 1014.8
20260830062503 89 0 0.0 0.0 0.00 0.00 0.00 59 1014.7
20260830062403 89 0 0.0 0.0 0.00 0.00 0.00 59 1014.8
20260830062305 89 0 0.0 0.0 0.00 0.00 0.00 59 1014.8
20260830062203 88 0 0.0 0.0 0.00 0.00 0.00 58 1014.9
20260830062103 88 0 0.0 0.0 0.00 0.00 0.00 58 1014.8
20260830062003 88 0 0.0 0.0 0.00 0.00 0.00 58 1014.7
20260830061903 88 0 0.0 0.0 0.00 0.00 0.00 58 1014.6
20260830061803 87 0 0.0 0.0 0.00 0.00 0.00 57 1014.7
20260830061703 87 0 0.0 0.0 0.00 0.00 0.00 58 1014.7
20260830061603 87 0 0.0 0.0 0.00 0.00 0.00 58 1014.6
20260830061503 87 0 0.0 0.0 0.00 0.00 0.00 58 1014.5
20260830061403 87 0 0.0 0.0 0.00 0.00 0.00 57 1014.5
20260830061303 87 0 0.0 0.0 0.00 0.00 0.00 57 1014.5
20260830061203 87 0 0.0 0.0 0.00 0.00 0.00 57 1014.6
20260830061103 87 0 0.0 0.0 0.00 0.00 0.00 56 1014.5
20260830061003 87 0 0.0 0.0 0.00 0.00 0.00 56 1014.6
20260830060903 87 0 0.0 0.0 0.00 0.00 0.00 56 1014.6
20260830060803 87 0 0.0 0.0 0.00 0.00 0.00 56 1014.5
20260830060703 87 0 0.0 0.0 0.00 0.00 0.00 55 1014.5
20260830060603 87 0 0.0 0.0 0.00 0.00 0.00 54 1014.6
20260830060503 87 0 0.0 0.0 0.00 0.00 0.00 54 1014.6
20260830060403 87 0 0.0 0.0 0.00 0.00 0.00 54 1014.5
20260830060303 87 0 0.0 0.0 0.00 0.00 0.00 53 1014.5
20260830060203 87 0 0.0 0.0 0.00 0.00 0.00 53 1014.6
20260830060003 87 126 0.0 1.0 0.00 0.00 0.00 53 1014.5
20260830055903 87 126 0.0 1.0 0.00 0.00 0.00 53 1014.6
20260830055803 87 126 0.0 1.0 0.00 0.00 0.00 53 1014.6
20260830055703 87 126 0.0 1.0 0.00 0.00 0.00 52 1014.5
20260830055603 87 126 0.0 1.0 0.00 0.00 0.00 52 1014.5
20260830055503 87 126 0.0 1.0 0.00 0.00 0.00 52 1014.5
20260830055403 87 126 0.0 1.0 0.00 0.00 0.00 51 1014.5
20260830055306 87 126 0.0 1.0 0.00 0.00 0.00 51 1014.5
20260830055203 87 126 0.0 1.0 0.00 0.00 0.00 51 1014.5
20260830055103 87 0 0.0 0.0 0.00 0.00 0.00 50 1014.5
20260830055003 87 0 0.0 0.0 0.00 0.00 0.00 50 1014.5
20260830054903 87 0 0.0 0.0 0.00 0.00 0.00 49 1014.6
20260830054803 87 0 0.0 0.0 0.00 0.00 0.00 48 1014.5
20260830054703 87 0 0.0 0.0 0.00 0.00 0.00 47 1014.6
20260830054603 86 0 0.0 0.0 0.00 0.00 0.00 46 1014.5
20260830054503 86 0 0.0 0.0 0.00 0.00 0.00 46 1014.5
20260830054403 87 0 0.0 0.0 0.00 0.00 0.00 45 1014.5
20260830054303 86 0 0.0 0.0 0.00 0.00 0.00 45 1014.5
20260830054203 86 0 0.0 0.0 0.00 0.00 0.00 45 1014.5
20260830054103 86 0 0.0 0.0 0.00 0.00 0.00 44 1014.5
20260830054003 86 0 0.0 0.0 0.00 0.00 0.00 44 1014.5
20260830053903 86 0 0.0 0.0 0.00 0.00 0.00 44 1014.5
20260830053803 86 0 0.0 0.0 0.00 0.00 0.00 44 1014.4
20260830053703 86 0 0.0 0.0 0.00 0.00 0.00 44 1014.5
20260830053603 86 0 0.0 0.0 0.00 0.00 0.00 44 1014.5
20260830053503 86 0 0.0 0.0 0.00 0.00 0.00 44 1014.5
20260830053403 86 0 0.0 0.0 0.00 0.00 0.00 44 1014.4
20260830053304 86 0 0.0 0.0 0.00 0.00 0.00 44 1014.4
20260830053204 86 0 0.0 0.0 0.00 0.00 0.00 44 1014.4
20260830053104 86 0 0.0 0.0 0.00 0.00 0.00 44 1014.5
20260830053004 86 0 0.0 0.0 0.00 0.00 0.00 43 1014.5
20260830052904 86 0 0.0 0.0 0.00 0.00 0.00 44 1014.5
20260830052804 86 0 0.0 0.0 0.00 0.00 0.00 44 1014.5
20260830052704 85 0 0.0 0.0 0.00 0.00 0.00 44 1014.5
20260830052604 85 0 0.0 0.0 0.00 0.00 0.00 44 1014.5
20260830052504 85 0 0.0 0.0 0.00 0.00 0.00 44 1014.4
20260830052404 85 0 0.0 0.0 0.00 0.00 0.00 44 1014.5
20260830052306 85 0 0.0 0.0 0.00 0.00 0.00 44 1014.4
20260830052204 85 0 0.0 0.0 0.00 0.00 0.00 44 1014.5
20260830052104 85 0 0.0 0.0 0.00 0.00 0.00 44 1014.4
20260830052004 85 0 0.0 0.0 0.00 0.00 0.00 44 1014.5
20260830051904 85 0 0.0 0.0 0.00 0.00 0.00 44 1014.5
20260830051804 85 0 0.0 0.0 0.00 0.00 0.00 45 1014.4
20260830051704 85 0 0.0 0.0 0.00 0.00 0.00 45 1014.4
20260830051604 85 0 0.0 0.0 0.00 0.00 0.00 44 1014.5
20260830051504 84 0 0.0 0.0 0.00 0.00 0.00 44 1014.5
20260830051404 84 0 0.0 0.0 0.00 0.00 0.00 45 1014.4
20260830051304 84 0 0.0 0.0 0.00 0.00 0.00 45 1014.5
20260830051204 84 0 0.0 0.0 0.00 0.00 0.00 45 1014.5
20260830051104 84 0 0.0 0.0 0.00 0.00 0.00 46 1014.5
20260830051004 84 0 0.0 0.0 0.00 0.00 0.00 46 1014.5
20260830050904 84 0 0.0 0.0 0.00 0.00 0.00 46 1014.5
20260830050804 84 0 0.0 0.0 0.00 0.00 0.00 46 1014.5
20260830050704 84 0 0.0 0.0 0.00 0.00 0.00 46 1014.5
20260830050604 84 0 0.0 0.0 0.00 0.00 0.00 46 1014.5
20260830050504 84 0 0.0 0.0 0.00 0.00 0.00 46 1014.5
20260830050404 84 0 0.0 0.0 0.00 0.00 0.00 46 1014.5
20260830050304 84 0 0.0 0.0 0.00 0.00 0.00 46 1014.5
20260830050204 84 0 0.0 0.0 0.00 0.00 0.00 46 1014.5
20260830050104 83 0 0.0 0.0 0.00 0.00 0.00 46 1014.5
20260830050004 83 0 0.0 0.0 0.00 0.00 0.00 47 1014.5
20260830045904 83 0 0.0 0.0 0.00 0.00 0.00 47 1014.5
20260830045804 83 0 0.0 0.0 0.00 0.00 0.00 47 1014.5
20260830045704 83 0 0.0 0.0 0.00 0.00 0.00 47 1014.5
20260830045604 83 0 0.0 0.0 0.00 0.00 0.00 47 1014.5
20260830045504 83 0 0.0 0.0 0.00 0.00 0.00 47 1014.5
20260830045404 83 0 0.0 0.0 0.00 0.00 0.00 47 1014.5
20260830045306 83 0 0.0 0.0 0.00 0.00 0.00 47 1014.5
20260830045204 83 0 0.0 0.0 0.00 0.00 0.00 47 1014.5
20260830045104 83 0 0.0 0.0 0.00 0.00 0.00 47 1014.5
20260830045004 83 0 0.0 0.0 0.00 0.00 0.00 47 1014.6
20260830044904 83 0 0.0 0.0 0.00 0.00 0.00 47 1014.6
20260830044804 83 0 0.0 0.0 0.00 0.00 0.00 48 1014.5
20260830044704 83 0 0.0 0.0 0.00 0.00 0.00 48 1014.5
20260830044604 83 0 0.0 0.0 0.00 0.00 0.00 48 1014.5
20260830044503 83 0 0.0 0.0 0.00 0.00 0.00 48 1014.6
20260830044403 83 0 0.0 0.0 0.00 0.00 0.00 48 1014.5
20260830044303 83 0 0.0 0.0 0.00 0.00 0.00 48 1014.5
20260830044204 83 0 0.0 0.0 0.00 0.00 0.00 48 1014.5
20260830044103 83 0 0.0 0.0 0.00 0.00 0.00 48 1014.5
20260830044003 83 0 0.0 0.0 0.00 0.00 0.00 49 1014.5
20260830043903 83 0 0.0 0.0 0.00 0.00 0.00 49 1014.5
20260830043803 83 0 0.0 0.0 0.00 0.00 0.00 49 1014.5
20260830043703 83 0 0.0 0.0 0.00 0.00 0.00 49 1014.5
20260830043604 83 0 0.0 0.0 0.00 0.00 0.00 49 1014.5
20260830043504 83 0 0.0 0.0 0.00 0.00 0.00 49 1014.5
20260830043403 83 0 0.0 0.0 0.00 0.00 0.00 49 1014.5
20260830043304 83 0 0.0 0.0 0.00 0.00 0.00 49 1014.7
20260830043203 83 0 0.0 0.0 0.00 0.00 0.00 49 1014.6
20260830043103 83 0 0.0 0.0 0.00 0.00 0.00 48 1014.6
20260830043003 83 0 0.0 0.0 0.00 0.00 0.00 49 1014.5
20260830042903 83 0 0.0 0.0 0.00 0.00 0.00 50 1014.6
20260830042803 83 0 0.0 0.0 0.00 0.00 0.00 50 1014.7
20260830042703 83 0 0.0 0.0 0.00 0.00 0.00 50 1014.6
20260830042603 83 0 0.0 0.0 0.00 0.00 0.00 51 1014.5
20260830042503 83 0 0.0 0.0 0.00 0.00 0.00 51 1014.5
20260830042404 83 0 0.0 0.0 0.00 0.00 0.00 51 1014.6
20260830042306 83 0 0.0 0.0 0.00 0.00 0.00 51 1014.6
20260830042203 83 0 0.0 0.0 0.00 0.00 0.00 51 1014.5
20260830042103 83 0 0.0 0.0 0.00 0.00 0.00 51 1014.5
20260830042003 83 0 0.0 0.0 0.00 0.00 0.00 51 1014.6
20260830041903 83 0 0.0 0.0 0.00 0.00 0.00 51 1014.6
20260830041803 83 0 0.0 0.0 0.00 0.00 0.00 51 1014.5
20260830041703 83 0 0.0 0.0 0.00 0.00 0.00 51 1014.7
20260830041603 83 0 0.0 0.0 0.00 0.00 0.00 51 1014.6
20260830041503 83 0 0.0 0.0 0.00 0.00 0.00 52 1014.6
20260830041403 83 0 0.0 0.0 0.00 0.00 0.00 52 1014.6
20260830041303 83 0 0.0 0.0 0.00 0.00 0.00 52 1014.6
20260830041203 83 0 0.0 0.0 0.00 0.00 0.00 53 1014.5
20260830041103 83 0 0.0 0.0 0.00 0.00 0.00 53 1014.6
20260830041003 83 0 0.0 0.0 0.00 0.00 0.00 53 1014.6
20260830040903 83 0 0.0 0.0 0.00 0.00 0.00 53 1014.6
20260830040803 83 0 0.0 0.0 0.00 0.00 0.00 53 1014.7
20260830040703 83 0 0.0 0.0 0.00 0.00 0.00 53 1014.7
20260830040603 83 0 0.0 0.0 0.00 0.00 0.00 53 1014.6
20260830040503 83 0 0.0 0.0 0.00 0.00 0.00 53 1014.6
20260830040403 83 0 0.0 0.0 0.00 0.00 0.00 54 1014.7
20260830040303 83 0 0.0 0.0 0.00 0.00 0.00 54 1014.7
20260830040203 83 0 0.0 0.0 0.00 0.00 0.00 54 1014.8
20260830040003 83 0 0.0 0.0 0.00 0.00 0.00 54 1014.6
20260830035903 83 0 0.0 0.0 0.00 0.00 0.00 53 1014.6
20260830035803 83 0 0.0 0.0 0.00 0.00 0.00 54 1014.7
20260830035703 83 0 0.0 0.0 0.00 0.00 0.00 54 1014.6
20260830035603 83 0 0.0 0.0 0.00 0.00 0.00 54 1014.7
20260830035503 83 0 0.0 0.0 0.00 0.00 0.00 54 1014.7
20260830035403 83 0 0.0 0.0 0.00 0.00 0.00 54 1014.8
20260830035306 84 0 0.0 0.0 0.00 0.00 0.00 54 1014.8
20260830035203 84 0 0.0 0.0 0.00 0.00 0.00 54 1014.8
20260830035103 84 0 0.0 0.0 0.00 0.00 0.00 54 1014.7
20260830035003 84 0 0.0 0.0 0.00 0.00 0.00 54 1014.7
20260830034903 84 0 0.0 0.0 0.00 0.00 0.00 54 1014.8
20260830034803 84 0 0.0 0.0 0.00 0.00 0.00 54 1014.7
20260830034703 84 0 0.0 0.0 0.00 0.00 0.00 54 1014.6
20260830034603 84 0 0.0 0.0 0.00 0.00 0.00 54 1014.7
20260830034503 84 0 0.0 0.0 0.00 0.00 0.00 54 1014.7
20260830034403 84 0 0.0 0.0 0.00 0.00 0.00 54 1014.7
20260830034303 84 0 0.0 0.0 0.00 0.00 0.00 54 1014.7
20260830034203 84 0 0.0 0.0 0.00 0.00 0.00 54 1014.8
20260830034103 84 0 0.0 0.0 0.00 0.00 0.00 54 1014.7
20260830034003 84 0 0.0 0.0 0.00 0.00 0.00 54 1014.7
20260830033903 84 0 0.0 0.0 0.00 0.00 0.00 54 1014.8
20260830033803 84 0 0.0 0.0 0.00 0.00 0.00 54 1014.8
20260830033703 84 0 0.0 0.0 0.00 0.00 0.00 54 1014.6
20260830033603 84 0 0.0 0.0 0.00 0.00 0.00 54 1014.7
20260830033503 84 0 0.0 0.0 0.00 0.00 0.00 54 1014.8
20260830033403 84 0 0.0 0.0 0.00 0.00 0.00 54 1014.8
20260830033303 84 0 0.0 0.0 0.00 0.00 0.00 54 1014.8
20260830033203 84 0 0.0 0.0 0.00 0.00 0.00 54 1014.8
20260830033103 84 0 0.0 0.0 0.00 0.00 0.00 54 1014.8
20260830033003 84 0 0.0 0.0 0.00 0.00 0.00 54 1014.8
20260830032903 84 0 0.0 0.0 0.00 0.00 0.00 54 1014.8
20260830032803 84 0 0.0 0.0 0.00 0.00 0.00 54 1014.9
20260830032703 84 0 0.0 0.0 0.00 0.00 0.00 54 1015.0
20260830032603 84 0 0.0 0.0 0.00 0.00 0.00 54 1015.0
20260830032503 84 0 0.0 0.0 0.00 0.00 0.00 54 1015.0
20260830032403 84 0 0.0 0.0 0.00 0.00 0.00 54 1014.9
20260830032306 84 0 0.0 0.0 0.00 0.00 0.00 54 1014.9
20260830032203 84 0 0.0 0.0 0.00 0.00 0.00 54 1015.0
20260830032103 84 0 0.0 0.0 0.00 0.00 0.00 54 1015.0
20260830032003 84 0 0.0 0.0 0.00 0.00 0.00 54 1015.0
20260830031903 84 0 0.0 0.0 0.00 0.00 0.00 54 1015.0
20260830031803 84 0 0.0 0.0 0.00 0.00 0.00 55 1015.0
20260830031703 84 0 0.0 0.0 0.00 0.00 0.00 55 1014.9
20260830031603 84 0 0.0 0.0 0.00 0.00 0.00 55 1014.9
20260830031503 84 0 0.0 0.0 0.00 0.00 0.00 54 1015.0
20260830031403 84 0 0.0 0.0 0.00 0.00 0.00 54 1015.0
20260830031303 84 0 0.0 0.0 0.00 0.00 0.00 54 1015.1
20260830031203 84 0 0.0 0.0 0.00 0.00 0.00 54 1015.1
20260830031103 84 0 0.0 0.0 0.00 0.00 0.00 54 1015.0
20260830031003 84 0 0.0 0.0 0.00 0.00 0.00 54 1015.0
20260830030903 84 0 0.0 0.0 0.00 0.00 0.00 54 1015.1
20260830030804 84 0 0.0 0.0 0.00 0.00 0.00 54 1015.1
20260830030704 84 0 0.0 0.0 0.00 0.00 0.00 54 1015.1
20260830030604 84 0 0.0 0.0 0.00 0.00 0.00 54 1015.1
20260830030504 84 0 0.0 0.0 0.00 0.00 0.00 53 1015.1
20260830030404 84 0 0.0 0.0 0.00 0.00 0.00 53 1015.1
20260830030304 84 0 0.0 0.0 0.00 0.00 0.00 52 1015.1
20260830030204 84 0 0.0 0.0 0.00 0.00 0.00 52 1015.1
20260830030104 84 0 0.0 0.0 0.00 0.00 0.00 51 1015.1
20260830030004 84 0 0.0 0.0 0.00 0.00 0.00 51 1015.1
20260830025904 84 0 0.0 0.0 0.00 0.00 0.00 51 1015.0
20260830025804 84 0 0.0 0.0 0.00 0.00 0.00 50 1015.1
20260830025704 84 0 0.0 0.0 0.00 0.00 0.00 50 1015.2
20260830025604 84 0 0.0 0.0 0.00 0.00 0.00 50 1015.1
20260830025504 84 0 0.0 0.0 0.00 0.00 0.00 50 1015.2
20260830025404 84 0 0.0 0.0 0.00 0.00 0.00 50 1015.2
20260830025306 84 0 0.0 0.0 0.00 0.00 0.00 49 1015.2
20260830025204 85 0 0.0 0.0 0.00 0.00 0.00 49 1015.2
20260830025104 85 0 0.0 0.0 0.00 0.00 0.00 49 1015.2
20260830025004 85 0 0.0 0.0 0.00 0.00 0.00 50 1015.2
20260830024904 85 0 0.0 0.0 0.00 0.00 0.00 50 1015.2
20260830024804 85 0 0.0 0.0 0.00 0.00 0.00 50 1015.2
20260830024704 85 0 0.0 0.0 0.00 0.00 0.00 50 1015.1
20260830024604 85 0 0.0 0.0 0.00 0.00 0.00 50 1015.1
20260830024504 85 0 0.0 0.0 0.00 0.00 0.00 50 1015.2
20260830024404 85 0 0.0 0.0 0.00 0.00 0.00 50 1015.2
20260830024304 85 0 0.0 0.0 0.00 0.00 0.00 50 1015.2
20260830024204 85 0 0.0 0.0 0.00 0.00 0.00 50 1015.2
20260830024104 85 0 0.0 0.0 0.00 0.00 0.00 50 1015.2
20260830024004 85 0 0.0 0.0 0.00 0.00 0.00 50 1015.1
20260830023904 85 0 0.0 0.0 0.00 0.00 0.00 50 1015.2
20260830023804 85 0 0.0 0.0 0.00 0.00 0.00 50 1015.3
20260830023704 85 0 0.0 0.0 0.00 0.00 0.00 50 1015.2
20260830023604 85 0 0.0 0.0 0.00 0.00 0.00 50 1015.3
20260830023504 85 0 0.0 0.0 0.00 0.00 0.00 50 1015.3
20260830023404 85 0 0.0 0.0 0.00 0.00 0.00 50 1015.3
20260830023304 85 0 0.0 0.0 0.00 0.00 0.00 50 1015.2
20260830023204 85 0 0.0 0.0 0.00 0.00 0.00 49 1015.3
20260830023104 85 0 0.0 0.0 0.00 0.00 0.00 47 1015.3
20260830023004 85 0 0.0 0.0 0.00 0.00 0.00 46 1015.2
20260830022904 85 0 0.0 0.0 0.00 0.00 0.00 46 1015.2
20260830022804 85 0 0.0 0.0 0.00 0.00 0.00 46 1015.3
20260830022704 85 0 0.0 0.0 0.00 0.00 0.00 45 1015.4
20260830022604 85 45 0.0 2.0 0.00 0.00 0.00 44 1015.3
20260830022503 85 316 0.0 2.0 0.00 0.00 0.00 43 1015.3
20260830022404 85 316 0.0 2.0 0.00 0.00 0.00 42 1015.3
20260830022306 85 300 0.0 3.0 0.00 0.00 0.00 42 1015.3
20260830022204 85 297 0.0 3.0 0.00 0.00 0.00 42 1015.3
20260830022104 85 297 0.0 3.0 0.00 0.00 0.00 43 1015.4
20260830022004 85 297 0.0 3.0 0.00 0.00 0.00 42 1015.3
20260830021903 85 295 0.0 3.0 0.00 0.00 0.00 42 1015.3
20260830021804 85 295 0.0 3.0 0.00 0.00 0.00 42 1015.3
20260830021703 85 295 0.0 3.0 0.00 0.00 0.00 42 1015.3
20260830021604 84 292 0.0 3.0 0.00 0.00 0.00 42 1015.3
20260830021503 84 292 0.0 3.0 0.00 0.00 0.00 42 1015.2
20260830021404 84 292 0.0 3.0 0.00 0.00 0.00 42 1015.3
20260830021303 84 292 0.0 3.0 0.00 0.00 0.00 42 1015.3
20260830021203 84 292 0.0 3.0 0.00 0.00 0.00 42 1015.3
20260830021103 84 292 0.0 3.0 0.00 0.00 0.00 42 1015.4
20260830021003 84 292 0.0 3.0 0.00 0.00 0.00 42 1015.4
20260830020903 84 292 0.0 2.0 0.00 0.00 0.00 43 1015.3
20260830020803 84 292 0.0 2.0 0.00 0.00 0.00 43 1015.4
20260830020703 83 292 0.0 2.0 0.00 0.00 0.00 43 1015.5
20260830020603 83 292 0.0 2.0 0.00 0.00 0.00 44 1015.4
20260830020504 83 292 0.0 1.0 0.00 0.00 0.00 44 1015.4
20260830020403 83 292 0.0 1.0 0.00 0.00 0.00 44 1015.4
20260830020303 83 292 0.0 1.0 0.00 0.00 0.00 44 1015.3
20260830020203 83 0 0.0 0.0 0.00 0.00 0.00 44 1015.3
20260830020103 83 292 0.0 1.0 0.00 0.00 0.00 44 1015.2
20260830020004 83 292 0.0 1.0 0.00 0.00 0.00 44 1015.2
20260830015903 83 292 0.0 2.0 0.00 0.00 0.00 44 1015.2
20260830015803 83 292 0.0 2.0 0.00 0.00 0.00 44 1015.3
20260830015703 83 292 0.0 2.0 0.00 0.00 0.00 44 1015.3
20260830015603 83 292 0.0 2.0 0.00 0.00 0.00 44 1015.3
20260830015503 83 292 0.0 2.0 0.00 0.00 0.00 44 1015.3
20260830015403 83 292 0.0 2.0 0.00 0.00 0.00 44 1015.3
20260830015306 83 292 0.0 2.0 0.00 0.00 0.00 44 1015.2
20260830015203 83 292 0.0 2.0 0.00 0.00 0.00 45 1015.2
20260830015103 83 292 0.0 2.0 0.00 0.00 0.00 45 1015.2
20260830015003 83 292 0.0 2.0 0.00 0.00 0.00 45 1015.2
20260830014903 83 292 0.0 1.0 0.00 0.00 0.00 46 1015.3
20260830014803 83 292 0.0 1.0 0.00 0.00 0.00 46 1015.2
20260830014703 83 292 0.0 1.0 0.00 0.00 0.00 45 1015.3
20260830014603 83 292 0.0 1.0 0.00 0.00 0.00 45 1015.3
20260830014503 83 292 0.0 1.0 0.00 0.00 0.00 45 1015.3
20260830014403 83 292 0.0 1.0 0.00 0.00 0.00 45 1015.4
20260830014303 83 292 0.0 1.0 0.00 0.00 0.00 46 1015.3
20260830014203 84 0 0.0 0.0 0.00 0.00 0.00 46 1015.3
20260830014103 83 0 0.0 0.0 0.00 0.00 0.00 46 1015.2
20260830014003 84 0 0.0 0.0 0.00 0.00 0.00 46 1015.3
20260830013903 84 0 0.0 0.0 0.00 0.00 0.00 46 1015.3
20260830013803 84 0 0.0 0.0 0.00 0.00 0.00 46 1015.2
20260830013703 84 0 0.0 0.0 0.00 0.00 0.00 46 1015.2
20260830013603 84 0 0.0 0.0 0.00 0.00 0.00 46 1015.3
20260830013503 84 0 0.0 0.0 0.00 0.00 0.00 46 1015.3
20260830013403 84 0 0.0 0.0 0.00 0.00 0.00 46 1015.3
20260830013303 84 0 0.0 0.0 0.00 0.00 0.00 46 1015.3
20260830013203 84 0 0.0 0.0 0.00 0.00 0.00 45 1015.3
20260830013103 84 0 0.0 0.0 0.00 0.00 0.00 45 1015.4
20260830013003 84 0 0.0 0.0 0.00 0.00 0.00 45 1015.3
20260830012903 84 0 0.0 0.0 0.00 0.00 0.00 45 1015.4
20260830012803 84 0 0.0 0.0 0.00 0.00 0.00 45 1015.3
20260830012703 84 0 0.0 0.0 0.00 0.00 0.00 45 1015.3
20260830012603 84 0 0.0 0.0 0.00 0.00 0.00 45 1015.5
20260830012503 84 0 0.0 0.0 0.00 0.00 0.00 45 1015.4
20260830012403 84 0 0.0 0.0 0.00 0.00 0.00 45 1015.4
20260830012306 84 0 0.0 0.0 0.00 0.00 0.00 45 1015.4
20260830012203 84 0 0.0 0.0 0.00 0.00 0.00 45 1015.4
20260830012103 84 0 0.0 0.0 0.00 0.00 0.00 44 1015.5
20260830012003 84 0 0.0 0.0 0.00 0.00 0.00 44 1015.5
20260830011903 84 0 0.0 0.0 0.00 0.00 0.00 44 1015.5
20260830011803 84 0 0.0 0.0 0.00 0.00 0.00 44 1015.3
20260830011703 84 0 0.0 0.0 0.00 0.00 0.00 44 1015.3
20260830011603 84 0 0.0 0.0 0.00 0.00 0.00 44 1015.4
20260830011503 84 0 0.0 0.0 0.00 0.00 0.00 44 1015.5
20260830011403 84 0 0.0 0.0 0.00 0.00 0.00 44 1015.3
20260830011303 84 0 0.0 0.0 0.00 0.00 0.00 44 1015.4
20260830011203 84 0 0.0 0.0 0.00 0.00 0.00 44 1015.3
20260830011103 84 0 0.0 0.0 0.00 0.00 0.00 43 1015.5
20260830011003 84 0 0.0 0.0 0.00 0.00 0.00 43 1015.5
20260830010903 84 0 0.0 0.0 0.00 0.00 0.00 43 1015.5
20260830010803 84 0 0.0 0.0 0.00 0.00 0.00 43 1015.5
20260830010703 84 0 0.0 0.0 0.00 0.00 0.00 43 1015.5
20260830010603 84 0 0.0 0.0 0.00 0.00 0.00 43 1015.5
20260830010503 84 0 0.0 0.0 0.00 0.00 0.00 43 1015.4
20260830010403 84 0 0.0 0.0 0.00 0.00 0.00 43 1015.4
20260830010303 84 0 0.0 0.0 0.00 0.00 0.00 43 1015.4
20260830010203 84 0 0.0 0.0 0.00 0.00 0.00 42 1015.4